W4HSV Weather Reports


time (UTC)temp
F
wind
direction
speed
knots
gust
knots
rain 1hr
in
rain 24hr
in
rain mn
in
humidity
%
barometer
mb
20260901155120 92 236 0.9 3.5 0.00 0.00 0.00 60 1020.1
20260901155048 92 236 1.7 3.5 0.00 0.00 0.00 62 1020.1
20260901154933 91 281 1.7 3.5 0.00 0.00 0.00 63 1020.1
20260901154900 91 236 1.7 3.5 0.00 0.00 0.00 61 1020.1
20260901154830 91 225 0.9 3.5 0.00 0.00 0.00 62 1020.2
20260901154521 91 303 1.7 3.5 0.00 0.00 0.00 61 1020.2
20260901154433 91 303 1.7 6.1 0.00 0.00 0.00 63 1020.1
20260901154319 91 211 1.7 6.1 0.00 0.00 0.00 63 1020.1
20260901154226 91 186 2.6 6.1 0.00 0.00 0.00 63 1020.2
20260901154132 91 223 1.7 6.1 0.00 0.00 0.00 62 1020.1
20260901154018 91 235 1.7 6.1 0.00 0.00 0.00 62 1020.2
20260901153929 91 173 1.7 6.1 0.00 0.00 0.00 61 1020.2
20260901153837 91 228 1.7 6.1 0.00 0.00 0.00 62 1020.2
20260901153743 91 223 1.7 6.1 0.00 0.00 0.00 61 1020.1
20260901153629 91 223 1.7 6.1 0.00 0.00 0.00 61 1020.2
20260901153535 91 236 2.6 6.1 0.00 0.00 0.00 61 1020.2
20260901153420 91 309 2.6 6.1 0.00 0.00 0.00 61 1020.2
20260901153327 91 270 2.6 6.1 0.00 0.00 0.00 62 1020.2
20260901153301 91 251 2.6 6.1 0.00 0.00 0.00 62 1020.2
20260901153033 91 242 2.6 6.1 0.00 0.00 0.00 62 1020.1
20260901152919 91 280 2.6 6.1 0.00 0.00 0.00 63 1020.1
20260901152825 91 179 3.5 6.1 0.00 0.00 0.00 62 1020.2
20260901152753 91 167 2.6 6.1 0.00 0.00 0.00 63 1020.2
20260901152620 91 155 2.6 3.5 0.00 0.00 0.00 64 1020.2
20260901152548 91 122 1.7 3.5 0.00 0.00 0.00 62 1020.2
20260901152454 91 130 1.7 3.5 0.00 0.00 0.00 62 1020.2
20260901152319 91 275 1.7 3.5 0.00 0.00 0.00 63 1020.2
20260901152225 91 302 1.7 3.5 0.00 0.00 0.00 64 1020.2
20260901152133 91 312 0.9 3.5 0.00 0.00 0.00 63 1020.2
20260901152018 91 314 1.7 3.5 0.00 0.00 0.00 63 1020.2
20260901151930 91 314 1.7 3.5 0.00 0.00 0.00 64 1020.1
20260901151859 91 293 1.7 3.5 0.00 0.00 0.00 63 1020.1
20260901151809 91 294 1.7 3.5 0.00 0.00 0.00 64 1020.1
20260901151521 90 338 1.7 3.5 0.00 0.00 0.00 64 1020.2
20260901151428 90 336 1.7 3.5 0.00 0.00 0.00 64 1020.2
20260901151339 90 296 0.9 3.5 0.00 0.00 0.00 63 1020.2
20260901151225 90 200 0.9 3.5 0.00 0.00 0.00 63 1020.2
20260901151153 90 200 1.7 3.5 0.00 0.00 0.00 64 1020.2
20260901151038 90 180 1.7 7.0 0.00 0.00 0.00 64 1020.2
20260901150923 90 220 0.9 7.0 0.00 0.00 0.00 64 1020.2
20260901150830 90 227 0.9 7.0 0.00 0.00 0.00 64 1020.3
20260901150721 90 227 1.7 7.0 0.00 0.00 0.00 64 1020.3
20260901150628 90 281 1.7 7.0 0.00 0.00 0.00 63 1020.2
20260901150535 90 209 1.7 7.0 0.00 0.00 0.00 65 1020.2
20260901150422 90 209 3.5 7.0 0.00 0.00 0.00 64 1020.1
20260901150329 90 264 3.5 7.0 0.00 0.00 0.00 65 1020.0
20260901150303 90 232 3.5 7.8 0.00 0.00 0.00 65 1020.0
20260901150035 90 142 1.7 4.3 0.00 0.00 0.00 65 1020.1
20260901145923 90 325 0.9 4.3 0.00 0.00 0.00 64 1020.1
20260901145830 90 224 0.9 4.3 0.00 0.00 0.00 63 1020.1
20260901145717 90 255 0.9 4.3 0.00 0.00 0.00 63 1020.1
20260901145628 90 317 1.7 4.3 0.00 0.00 0.00 65 1020.1
20260901145516 90 188 2.6 4.3 0.00 0.00 0.00 63 1020.1
20260901145444 90 211 2.6 4.3 0.00 0.00 0.00 64 1020.0
20260901145329 90 215 1.7 4.3 0.00 0.00 0.00 65 1020.1
20260901145217 89 161 0.9 3.5 0.00 0.00 0.00 64 1020.1
20260901145144 89 207 0.9 3.5 0.00 0.00 0.00 65 1020.1
20260901145049 89 214 1.7 6.1 0.00 0.00 0.00 66 1020.1
20260901142035 88 22 1.7 3.5 0.00 0.00 0.00 69 1020.2
20260901141942 88 5 1.7 3.5 0.00 0.00 0.00 68 1020.1
20260901141912 88 17 1.7 3.5 0.00 0.00 0.00 68 1020.1
20260901141623 87 119 1.7 3.5 0.00 0.00 0.00 69 1020.3
20260901141533 87 120 1.7 3.5 0.00 0.00 0.00 69 1020.3
20260901141439 87 44 1.7 3.5 0.00 0.00 0.00 69 1020.3
20260901141325 87 76 1.7 3.5 0.00 0.00 0.00 71 1020.3
20260901141232 87 65 1.7 3.5 0.00 0.00 0.00 70 1020.3
20260901141139 87 78 1.7 2.6 0.00 0.00 0.00 71 1020.3
20260901141029 87 110 0.9 2.6 0.00 0.00 0.00 71 1020.3
20260901140936 87 61 0.0 2.6 0.00 0.00 0.00 71 1020.2
20260901140823 87 91 0.9 2.6 0.00 0.00 0.00 71 1020.2
20260901140731 87 26 0.9 2.6 0.00 0.00 0.00 71 1020.2
20260901140638 87 33 0.9 2.6 0.00 0.00 0.00 72 1020.2
20260901140525 86 33 0.9 2.6 0.00 0.00 0.00 71 1020.3
20260901140437 86 59 0.9 2.6 0.00 0.00 0.00 72 1020.2
20260901140406 86 59 0.0 2.6 0.00 0.00 0.00 71 1020.2
20260901140139 86 76 0.9 2.6 0.00 0.00 0.00 72 1020.2
20260901140045 86 76 0.9 2.6 0.00 0.00 0.00 72 1020.1
20260901135931 86 76 1.7 2.6 0.00 0.00 0.00 73 1020.1
20260901135821 86 137 0.9 2.6 0.00 0.00 0.00 74 1020.1
20260901135727 86 92 0.9 2.6 0.00 0.00 0.00 73 1020.1
20260901135635 86 149 0.9 3.5 0.00 0.00 0.00 72 1020.1
20260901135521 85 121 0.0 3.5 0.00 0.00 0.00 72 1020.1
20260901135427 85 136 0.0 3.5 0.00 0.00 0.00 72 1020.1
20260901135333 85 136 0.0 3.5 0.00 0.00 0.00 72 1020.1
20260901135224 85 136 0.9 3.5 0.00 0.00 0.00 73 1020.1
20260901135131 85 136 0.9 3.5 0.00 0.00 0.00 73 1020.0
20260901135038 85 93 1.7 3.5 0.00 0.00 0.00 73 1020.1
20260901134924 85 128 0.9 3.5 0.00 0.00 0.00 73 1020.0
20260901134858 85 94 0.9 3.5 0.00 0.00 0.00 73 1020.0
20260901134632 85 24 0.9 2.6 0.00 0.00 0.00 75 1020.1
20260901134539 85 60 0.9 2.6 0.00 0.00 0.00 75 1019.9
20260901134426 85 38 0.9 2.6 0.00 0.00 0.00 74 1019.9
20260901134332 85 38 0.9 2.6 0.00 0.00 0.00 75 1019.8
20260901134224 84 37 1.7 2.6 0.00 0.00 0.00 75 1019.9
20260901134130 84 50 1.7 2.6 0.00 0.00 0.00 74 1019.9
20260901134059 84 58 0.9 2.6 0.00 0.00 0.00 74 1019.9
20260901133927 84 59 0.0 2.6 0.00 0.00 0.00 74 1019.9
20260901133833 84 109 0.0 2.6 0.00 0.00 0.00 74 1019.9
20260901133721 84 109 0.9 2.6 0.00 0.00 0.00 74 1019.9
20260901133627 84 109 1.7 2.6 0.00 0.00 0.00 74 1019.8
20260901133538 84 109 1.7 2.6 0.00 0.00 0.00 75 1019.9
20260901133425 84 107 0.9 2.6 0.00 0.00 0.00 75 1019.9
20260901133356 84 123 0.9 2.6 0.00 0.00 0.00 75 1019.9
20260901133130 84 105 0.9 2.6 0.00 0.00 0.00 74 1019.8
20260901133022 84 85 0.9 2.6 0.00 0.00 0.00 74 1019.8
20260901132929 84 85 0.9 2.6 0.00 0.00 0.00 75 1019.9
20260901132836 84 146 0.9 2.6 0.00 0.00 0.00 75 1019.9
20260901132725 84 129 0.9 2.6 0.00 0.00 0.00 75 1019.9
20260901132633 84 129 1.7 2.6 0.00 0.00 0.00 75 1019.9
20260901132524 84 111 1.7 2.6 0.00 0.00 0.00 75 1019.9
20260901132431 84 146 1.7 2.6 0.00 0.00 0.00 75 1019.9
20260901132340 84 151 0.9 2.6 0.00 0.00 0.00 75 1019.9
20260901132228 84 142 0.0 2.6 0.00 0.00 0.00 76 1020.0
20260901132155 84 86 0.9 2.6 0.00 0.00 0.00 76 1019.9
20260901132021 84 103 0.9 2.6 0.00 0.00 0.00 76 1019.9
20260901131949 84 103 0.9 2.6 0.00 0.00 0.00 76 1020.0
20260901131902 84 111 0.0 0.0 0.00 0.00 0.00 76 1020.0
20260901131635 83 86 0.0 0.0 0.00 0.00 0.00 77 1019.8
20260901131523 83 65 0.0 0.0 0.00 0.00 0.00 77 1019.9
20260901131431 83 65 0.0 0.0 0.00 0.00 0.00 77 1019.9
20260901131321 83 78 0.0 0.0 0.00 0.00 0.00 77 1019.9
20260901131249 83 78 0.0 0.0 0.00 0.00 0.00 78 1019.9
20260901131135 82 355 0.0 0.0 0.00 0.00 0.00 78 1019.9
20260901131020 82 355 0.0 0.0 0.00 0.00 0.00 78 1019.9
20260901130927 82 355 0.0 0.0 0.00 0.00 0.00 78 1019.9
20260901130835 82 355 0.0 0.0 0.00 0.00 0.00 79 1019.9
20260901130727 82 355 0.0 0.0 0.00 0.00 0.00 79 1019.8
20260901130635 81 355 0.0 0.0 0.00 0.00 0.00 80 1019.9
20260901130543 81 355 0.0 0.0 0.00 0.00 0.00 80 1019.8
20260901130448 81 355 0.0 0.0 0.00 0.00 0.00 81 1019.8
20260901130357 81 355 0.0 0.0 0.00 0.00 0.00 81 1019.8
20260901130131 80 355 0.0 0.0 0.00 0.00 0.00 81 1019.7
20260901130022 80 355 0.0 0.0 0.00 0.00 0.00 81 1019.8
20260901125928 80 355 0.0 0.0 0.00 0.00 0.00 81 1019.7
20260901125836 80 355 0.0 0.0 0.00 0.00 0.00 82 1019.7
20260901125724 80 355 0.0 0.0 0.00 0.00 0.00 82 1019.7
20260901125631 79 355 0.0 0.0 0.00 0.00 0.00 82 1019.8
20260901125523 79 355 0.0 0.0 0.00 0.00 0.00 83 1019.6
20260901125431 79 355 0.0 0.0 0.00 0.00 0.00 83 1019.7
20260901125359 79 355 0.0 0.0 0.00 0.00 0.00 82 1019.7
20260901125224 79 355 0.0 0.0 0.00 0.00 0.00 83 1019.7
20260901125131 79 355 0.0 0.0 0.00 0.00 0.00 83 1019.8
20260901125039 79 355 0.0 0.0 0.00 0.00 0.00 84 1019.7
20260901125007 78 355 0.0 0.0 0.00 0.00 0.00 84 1019.7
20260901124922 78 355 0.0 0.0 0.00 0.00 0.00 84 1019.7
20260901124633 78 355 0.0 0.0 0.00 0.00 0.00 85 1019.7
20260901124521 78 355 0.0 0.0 0.00 0.00 0.00 85 1019.8
20260901124429 78 355 0.0 0.0 0.00 0.00 0.00 85 1019.7
20260901124321 77 355 0.0 0.0 0.00 0.00 0.00 85 1019.7
20260901124228 77 355 0.0 0.0 0.00 0.00 0.00 86 1019.8
20260901124137 77 355 0.0 0.0 0.00 0.00 0.00 86 1019.8
20260901124044 77 355 0.0 0.0 0.00 0.00 0.00 87 1019.7
20260901123930 77 355 0.0 0.0 0.00 0.00 0.00 87 1019.7
20260901123838 76 355 0.0 0.0 0.00 0.00 0.00 87 1019.8
20260901123730 76 355 0.0 0.0 0.00 0.00 0.00 88 1019.8
20260901123636 76 355 0.0 0.0 0.00 0.00 0.00 88 1019.7
20260901123524 76 355 0.0 0.0 0.00 0.00 0.00 88 1019.8
20260901123452 76 355 0.0 1.7 0.00 0.00 0.00 88 1019.7
20260901123402 76 355 0.0 1.7 0.00 0.00 0.00 89 1019.7
20260901123140 76 355 0.0 1.7 0.00 0.00 0.00 89 1019.7
20260901123026 76 355 0.0 1.7 0.00 0.00 0.00 89 1019.7
20260901122955 75 355 0.0 1.7 0.00 0.00 0.00 89 1019.7
20260901122822 75 355 0.0 1.7 0.00 0.00 0.00 89 1019.7
20260901122730 75 355 0.9 2.6 0.00 0.00 0.00 89 1019.7
20260901122621 75 355 0.9 2.6 0.00 0.00 0.00 89 1019.7
20260901122549 75 355 0.9 2.6 0.00 0.00 0.00 89 1019.7
20260901122435 75 355 0.9 2.6 0.00 0.00 0.00 89 1019.7
20260901122322 75 355 0.9 2.6 0.00 0.00 0.00 89 1019.6
20260901122230 75 355 0.9 2.6 0.00 0.00 0.00 90 1019.7
20260901122138 74 355 0.9 2.6 0.00 0.00 0.00 90 1019.7
20260901122029 74 355 1.7 2.6 0.00 0.00 0.00 90 1019.6
20260901121906 74 355 1.7 2.6 0.00 0.00 0.00 90 1019.7
20260901121700 74 355 1.7 2.6 0.00 0.00 0.00 90 1019.6
20260901121526 74 355 1.7 2.6 0.00 0.00 0.00 91 1019.5
20260901121438 74 355 1.7 2.6 0.00 0.00 0.00 91 1019.6
20260901121326 73 355 1.7 2.6 0.00 0.00 0.00 91 1019.5
20260901121233 73 355 1.7 1.7 0.00 0.00 0.00 91 1019.5
20260901121140 73 355 0.9 1.7 0.00 0.00 0.00 91 1019.5
20260901121026 73 355 0.0 1.7 0.00 0.00 0.00 92 1019.5
20260901120953 73 355 0.0 1.7 0.00 0.00 0.00 92 1019.5
20260901120821 73 355 0.0 1.7 0.00 0.00 0.00 93 1019.5
20260901120728 73 355 0.9 2.6 0.00 0.00 0.00 93 1019.5
20260901120635 73 355 0.9 2.6 0.00 0.00 0.00 93 1019.5
20260901120523 73 355 0.9 2.6 0.00 0.00 0.00 92 1019.6
20260901120405 73 355 0.9 2.6 0.00 0.00 0.00 92 1019.6
20260901120138 72 355 1.7 2.6 0.00 0.00 0.00 92 1019.5
20260901120025 72 355 1.7 2.6 0.00 0.00 0.00 92 1019.4
20260901115933 72 355 1.7 2.6 0.00 0.00 0.00 92 1019.5
20260901115820 72 355 1.7 2.6 0.00 0.00 0.00 92 1019.5
20260901115752 72 355 1.7 2.6 0.00 0.00 0.00 92 1019.4
20260901115639 72 355 1.7 2.6 0.00 0.00 0.00 92 1019.4
20260901115527 72 355 0.9 2.6 0.00 0.00 0.00 92 1019.4
20260901115434 72 355 0.9 2.6 0.00 0.00 0.00 92 1019.4
20260901115321 72 355 1.7 2.6 0.00 0.00 0.00 92 1019.4
20260901115248 72 355 0.9 2.6 0.00 0.00 0.00 92 1019.4
20260901115139 72 355 0.9 1.7 0.00 0.00 0.00 92 1019.4
20260901115024 72 355 0.9 1.7 0.00 0.00 0.00 92 1019.3
20260901114932 72 355 0.9 2.6 0.00 0.00 0.00 93 1019.4
20260901114903 72 355 0.9 2.6 0.00 0.00 0.00 93 1019.4
20260901114657 72 355 0.9 2.6 0.00 0.00 0.00 93 1019.3
20260901114529 72 355 0.9 2.6 0.00 0.00 0.00 93 1019.3
20260901114457 72 355 0.9 2.6 0.00 0.00 0.00 93 1019.4
20260901114322 72 355 0.9 2.6 0.00 0.00 0.00 93 1019.3
20260901114230 72 355 0.9 2.6 0.00 0.00 0.00 93 1019.3
20260901114138 72 355 0.9 2.6 0.00 0.00 0.00 92 1019.3
20260901114025 72 355 1.7 2.6 0.00 0.00 0.00 92 1019.3
20260901113936 72 355 1.7 2.6 0.00 0.00 0.00 92 1019.2
20260901113823 72 355 0.9 2.6 0.00 0.00 0.00 92 1019.2
20260901113730 72 355 1.7 2.6 0.00 0.00 0.00 92 1019.2
20260901113638 72 355 1.7 2.6 0.00 0.00 0.00 92 1019.2
20260901113527 72 355 1.7 2.6 0.00 0.00 0.00 92 1019.3
20260901113410 72 355 1.7 2.6 0.00 0.00 0.00 92 1019.2
20260901113123 72 355 1.7 2.6 0.00 0.00 0.00 92 1019.2
20260901113030 72 355 1.7 2.6 0.00 0.00 0.00 92 1019.2
20260901112958 72 355 1.7 2.6 0.00 0.00 0.00 92 1019.2
20260901112828 72 355 1.7 2.6 0.00 0.00 0.00 92 1019.2
20260901112733 72 355 1.7 2.6 0.00 0.00 0.00 92 1019.2
20260901112622 72 355 1.7 2.6 0.00 0.00 0.00 92 1019.2
20260901112530 72 355 1.7 2.6 0.00 0.00 0.00 92 1019.2
20260901112437 72 355 1.7 2.6 0.00 0.00 0.00 92 1019.2
20260901112328 72 355 1.7 2.6 0.00 0.00 0.00 92 1019.2
20260901112236 72 355 1.7 2.6 0.00 0.00 0.00 92 1019.1
20260901112122 72 355 1.7 2.6 0.00 0.00 0.00 92 1019.1
20260901112029 72 355 1.7 2.6 0.00 0.00 0.00 92 1019.1
20260901111931 72 355 1.7 2.6 0.00 0.00 0.00 92 1019.1
20260901111622 72 355 1.7 3.5 0.00 0.00 0.00 92 1019.0
20260901111528 72 355 1.7 3.5 0.00 0.00 0.00 92 1019.1
20260901111455 72 355 1.7 3.5 0.00 0.00 0.00 92 1019.1
20260901111322 72 355 1.7 3.5 0.00 0.00 0.00 92 1019.1
20260901111229 72 355 1.7 3.5 0.00 0.00 0.00 92 1019.1
20260901111121 72 355 1.7 3.5 0.00 0.00 0.00 92 1019.0
20260901111029 72 355 1.7 3.5 0.00 0.00 0.00 92 1019.0
20260901110937 72 344 1.7 2.6 0.00 0.00 0.00 92 1019.0
20260901110824 72 340 1.7 2.6 0.00 0.00 0.00 92 1019.0
20260901110731 72 343 1.7 2.6 0.00 0.00 0.00 92 1019.0
20260901110657 72 5 1.7 2.6 0.00 0.00 0.00 92 1019.1
20260901110527 72 5 1.7 2.6 0.00 0.00 0.00 92 1019.0
20260901110455 72 5 1.7 2.6 0.00 0.00 0.00 92 1019.0
20260901110404 72 5 1.7 2.6 0.00 0.00 0.00 92 1019.0
20260901110137 72 5 1.7 2.6 0.00 0.00 0.00 92 1018.9
20260901110024 72 5 1.7 2.6 0.00 0.00 0.00 92 1018.9
20260901105936 72 5 1.7 2.6 0.00 0.00 0.00 92 1019.0
20260901105824 72 5 1.7 2.6 0.00 0.00 0.00 92 1019.1
20260901105730 72 5 1.7 2.6 0.00 0.00 0.00 92 1018.9
20260901105636 72 5 1.7 2.6 0.00 0.00 0.00 92 1019.0
20260901105524 72 5 1.7 2.6 0.00 0.00 0.00 92 1019.0
20260901105435 72 5 1.7 2.6 0.00 0.00 0.00 92 1018.9
20260901105324 72 5 1.7 2.6 0.00 0.00 0.00 92 1019.0
20260901105232 72 5 1.7 2.6 0.00 0.00 0.00 92 1019.0
20260901105139 72 5 1.7 2.6 0.00 0.00 0.00 92 1019.1
20260901105027 72 5 1.7 2.6 0.00 0.00 0.00 92 1019.0
20260901104908 72 5 1.7 2.6 0.00 0.00 0.00 92 1019.1
20260901104622 72 5 1.7 2.6 0.00 0.00 0.00 92 1019.0
20260901104530 72 5 1.7 2.6 0.00 0.00 0.00 92 1019.0
20260901104439 72 5 1.7 2.6 0.00 0.00 0.00 92 1019.1
20260901104329 72 5 1.7 2.6 0.00 0.00 0.00 92 1019.0
20260901104237 72 5 1.7 2.6 0.00 0.00 0.00 92 1018.9
20260901104124 72 5 1.7 2.6 0.00 0.00 0.00 91 1018.9
20260901104031 72 5 1.7 2.6 0.00 0.00 0.00 91 1018.9
20260901103959 72 5 1.7 2.6 0.00 0.00 0.00 91 1019.0
20260901103824 72 5 1.7 2.6 0.00 0.00 0.00 91 1018.9
20260901103736 72 5 1.7 2.6 0.00 0.00 0.00 91 1018.9
20260901103623 72 5 1.7 2.6 0.00 0.00 0.00 91 1018.9
20260901103551 72 5 1.7 2.6 0.00 0.00 0.00 91 1018.9
20260901103437 72 5 1.7 2.6 0.00 0.00 0.00 91 1018.9
20260901103408 72 5 0.9 1.7 0.00 0.00 0.00 91 1018.9
20260901103125 72 5 0.0 1.7 0.00 0.00 0.00 92 1018.8
20260901103033 72 5 0.0 0.9 0.00 0.00 0.00 92 1018.9
20260901102940 72 5 0.0 0.9 0.00 0.00 0.00 92 1018.8
20260901102847 72 5 0.0 1.7 0.00 0.00 0.00 91 1018.8
20260901102733 72 5 0.0 1.7 0.00 0.00 0.00 91 1018.9
20260901102625 72 5 0.0 1.7 0.00 0.00 0.00 91 1018.9
20260901102532 72 5 0.0 1.7 0.00 0.00 0.00 91 1018.8
20260901102420 72 5 0.0 1.7 0.00 0.00 0.00 91 1018.8
20260901102348 72 5 0.0 1.7 0.00 0.00 0.00 91 1018.8
20260901102235 72 5 0.9 1.7 0.00 0.00 0.00 91 1018.8
20260901102121 72 5 0.9 1.7 0.00 0.00 0.00 91 1018.8
20260901102033 72 5 0.9 1.7 0.00 0.00 0.00 91 1018.8
20260901101932 72 5 0.9 1.7 0.00 0.00 0.00 91 1018.8
20260901101624 73 5 0.9 1.7 0.00 0.00 0.00 91 1018.7
20260901101532 73 5 0.9 1.7 0.00 0.00 0.00 91 1018.7
20260901101424 73 5 0.9 1.7 0.00 0.00 0.00 91 1018.7
20260901101332 73 5 0.9 1.7 0.00 0.00 0.00 91 1018.7
20260901101240 73 5 0.9 1.7 0.00 0.00 0.00 91 1018.7
20260901101125 73 5 0.9 1.7 0.00 0.00 0.00 92 1018.7
20260901101033 73 5 0.9 1.7 0.00 0.00 0.00 92 1018.7
20260901100925 73 5 0.9 1.7 0.00 0.00 0.00 92 1018.8
20260901100831 73 5 0.9 1.7 0.00 0.00 0.00 92 1018.7
20260901100739 73 5 0.9 1.7 0.00 0.00 0.00 92 1018.7
20260901100627 73 5 0.9 1.7 0.00 0.00 0.00 92 1018.7
20260901100533 73 5 0.9 1.7 0.00 0.00 0.00 92 1018.8
20260901100442 73 5 0.9 1.7 0.00 0.00 0.00 92 1018.7
20260901100356 73 5 0.9 1.7 0.00 0.00 0.00 92 1018.7
20260901100129 73 5 1.7 1.7 0.00 0.00 0.00 92 1018.6
20260901100056 73 5 1.7 1.7 0.00 0.00 0.00 93 1018.7
20260901095923 73 5 0.9 1.7 0.00 0.00 0.00 93 1018.6
20260901095829 73 5 0.9 1.7 0.00 0.00 0.00 93 1018.6
20260901095720 73 5 0.9 1.7 0.00 0.00 0.00 93 1018.6
20260901095627 73 5 0.9 1.7 0.00 0.00 0.00 93 1018.6
20260901095535 73 5 0.9 1.7 0.00 0.00 0.00 92 1018.5
20260901095423 73 5 0.9 1.7 0.00 0.00 0.00 92 1018.6
20260901095331 73 5 0.9 1.7 0.00 0.00 0.00 92 1018.5
20260901095222 73 5 0.9 1.7 0.00 0.00 0.00 92 1018.6
20260901095130 73 5 0.9 1.7 0.00 0.00 0.00 92 1018.5
20260901095037 73 5 0.9 1.7 0.00 0.00 0.00 92 1018.6
20260901094944 73 5 0.9 1.7 0.00 0.00 0.00 92 1018.5
20260901094916 73 5 0.9 1.7 0.00 0.00 0.00 92 1018.5
20260901094631 73 5 0.9 0.9 0.00 0.00 0.00 92 1018.5
20260901094539 73 5 0.9 0.9 0.00 0.00 0.00 92 1018.5
20260901094426 73 5 0.0 0.9 0.00 0.00 0.00 92 1018.5
20260901094333 73 5 0.0 0.0 0.00 0.00 0.00 92 1018.5
20260901094222 73 5 0.0 0.0 0.00 0.00 0.00 92 1018.5
20260901094130 73 5 0.0 0.0 0.00 0.00 0.00 92 1018.5
20260901094021 73 5 0.0 0.0 0.00 0.00 0.00 92 1018.5
20260901093929 73 5 0.0 0.0 0.00 0.00 0.00 92 1018.4
20260901093837 73 5 0.0 0.0 0.00 0.00 0.00 92 1018.5
20260901093745 73 5 0.0 0.0 0.00 0.00 0.00 92 1018.4
20260901093632 73 5 0.0 0.0 0.00 0.00 0.00 92 1018.3
20260901093538 73 5 0.0 0.0 0.00 0.00 0.00 92 1018.5
20260901093511 73 5 0.0 0.0 0.00 0.00 0.00 92 1018.5
20260901093358 73 5 0.0 0.0 0.00 0.00 0.00 92 1018.4
20260901093132 73 5 0.0 0.0 0.00 0.00 0.00 92 1018.5
20260901093039 73 5 0.0 0.0 0.00 0.00 0.00 92 1018.4
20260901092947 73 5 0.0 0.0 0.00 0.00 0.00 92 1018.4
20260901092836 73 5 0.0 0.0 0.00 0.00 0.00 92 1018.4
20260901092724 73 5 0.0 0.0 0.00 0.00 0.00 92 1018.4
20260901092632 73 5 0.0 0.0 0.00 0.00 0.00 92 1018.5
20260901092600 73 5 0.0 0.0 0.00 0.00 0.00 92 1018.5
20260901092425 73 5 0.0 0.0 0.00 0.00 0.00 92 1018.5
20260901092332 73 5 0.0 0.0 0.00 0.00 0.00 92 1018.5
20260901092224 73 5 0.0 0.0 0.00 0.00 0.00 92 1018.4
20260901092131 73 5 0.0 0.0 0.00 0.00 0.00 92 1018.4
20260901092037 73 5 0.0 0.0 0.00 0.00 0.00 92 1018.5
20260901091924 73 5 0.0 0.0 0.00 0.00 0.00 92 1018.4
20260901091855 73 5 0.0 0.9 0.00 0.00 0.00 92 1018.4
20260901091632 73 5 0.0 1.7 0.00 0.00 0.00 92 1018.3
20260901091539 73 5 0.0 1.7 0.00 0.00 0.00 92 1018.4
20260901091446 73 5 0.0 1.7 0.00 0.00 0.00 92 1018.4
20260901091352 73 5 0.0 1.7 0.00 0.00 0.00 91 1018.3
20260901091239 73 5 0.0 1.7 0.00 0.00 0.00 91 1018.3
20260901091126 73 5 0.0 1.7 0.00 0.00 0.00 91 1018.3
20260901091038 73 5 0.0 1.7 0.00 0.00 0.00 91 1018.2
20260901090946 73 5 0.9 1.7 0.00 0.00 0.00 91 1018.2
20260901090852 73 5 0.9 1.7 0.00 0.00 0.00 91 1018.3
20260901090739 73 5 0.9 1.7 0.00 0.00 0.00 91 1018.3
20260901090627 73 5 0.9 1.7 0.00 0.00 0.00 91 1018.3
20260901090535 73 5 0.9 1.7 0.00 0.00 0.00 90 1018.2
20260901090427 73 5 0.9 1.7 0.00 0.00 0.00 90 1018.3
20260901090358 73 5 0.9 1.7 0.00 0.00 0.00 90 1018.3
20260901090130 73 5 0.9 1.7 0.00 0.00 0.00 90 1018.2
20260901090036 73 5 1.7 1.7 0.00 0.00 0.00 90 1018.2
20260901085924 73 5 1.7 1.7 0.00 0.00 0.00 90 1018.3
20260901085835 73 5 1.7 1.7 0.00 0.00 0.00 90 1018.2
20260901085722 73 5 1.7 1.7 0.00 0.00 0.00 91 1018.2
20260901085650 73 5 1.7 1.7 0.00 0.00 0.00 91 1018.2
20260901085537 73 5 1.7 1.7 0.00 0.00 0.00 91 1018.2
20260901085425 74 5 1.7 1.7 0.00 0.00 0.00 91 1018.1
20260901085332 74 5 0.9 1.7 0.00 0.00 0.00 91 1018.2
20260901085244 74 5 0.9 1.7 0.00 0.00 0.00 91 1018.1
20260901085131 74 5 0.9 1.7 0.00 0.00 0.00 91 1018.2
20260901085038 74 5 0.9 1.7 0.00 0.00 0.00 91 1018.1
20260901084946 74 5 0.9 1.7 0.00 0.00 0.00 91 1018.0
20260901084856 74 5 0.9 1.7 0.00 0.00 0.00 91 1018.0
20260901084653 74 5 0.9 1.7 0.00 0.00 0.00 91 1018.1
20260901084539 74 5 1.7 1.7 0.00 0.00 0.00 91 1018.1
20260901084426 74 5 1.7 1.7 0.00 0.00 0.00 91 1018.1
20260901084333 74 5 0.9 1.7 0.00 0.00 0.00 91 1018.1
20260901084220 74 5 0.9 1.7 0.00 0.00 0.00 91 1018.1
20260901084128 74 5 0.9 0.9 0.00 0.00 0.00 91 1018.2
20260901084040 74 5 0.0 0.9 0.00 0.00 0.00 91 1018.1
20260901083927 74 5 0.0 0.0 0.00 0.00 0.00 91 1018.1
20260901083835 74 5 0.0 0.0 0.00 0.00 0.00 91 1018.1
20260901083723 74 5 0.0 0.9 0.00 0.00 0.00 91 1018.1
20260901083631 74 5 0.0 0.9 0.00 0.00 0.00 91 1018.1
20260901083521 74 5 0.0 0.9 0.00 0.00 0.00 91 1018.0
20260901083448 74 5 0.0 0.9 0.00 0.00 0.00 91 1018.1
20260901083419 74 5 0.0 0.9 0.00 0.00 0.00 90 1018.1
20260901083130 74 5 0.0 0.9 0.00 0.00 0.00 90 1018.1
20260901083039 74 5 0.0 0.9 0.00 0.00 0.00 90 1018.1
20260901082930 74 5 0.0 0.9 0.00 0.00 0.00 90 1018.0
20260901082837 74 5 0.0 0.9 0.00 0.00 0.00 90 1018.0
20260901082725 74 5 0.0 0.9 0.00 0.00 0.00 91 1018.1
20260901082634 74 5 0.0 0.0 0.00 0.00 0.00 91 1018.1
20260901082521 74 5 0.0 0.0 0.00 0.00 0.00 91 1018.0
20260901082434 74 5 0.0 0.9 0.00 0.00 0.00 91 1018.1
20260901082321 74 5 0.0 1.7 0.00 0.00 0.00 91 1018.0
20260901082228 74 5 0.0 1.7 0.00 0.00 0.00 91 1018.1
20260901082136 74 5 0.0 1.7 0.00 0.00 0.00 91 1018.0
20260901082023 74 5 0.0 1.7 0.00 0.00 0.00 91 1018.0
20260901081906 74 5 0.0 1.7 0.00 0.00 0.00 91 1018.0
20260901081638 74 5 0.0 1.7 0.00 0.00 0.00 91 1018.0
20260901081526 74 5 0.9 1.7 0.00 0.00 0.00 90 1018.0
20260901081433 74 5 0.9 1.7 0.00 0.00 0.00 90 1018.1
20260901081324 74 5 0.0 0.9 0.00 0.00 0.00 91 1018.1
20260901081230 74 5 0.0 0.0 0.00 0.00 0.00 91 1018.1
20260901081138 74 5 0.0 0.0 0.00 0.00 0.00 91 1018.1
20260901081025 74 5 0.0 0.0 0.00 0.00 0.00 91 1018.0
20260901080932 74 5 0.0 0.0 0.00 0.00 0.00 91 1018.0
20260901080824 74 5 0.0 0.0 0.00 0.00 0.00 91 1018.1
20260901080731 74 5 0.0 0.9 0.00 0.00 0.00 91 1018.1
20260901080638 74 5 0.0 0.9 0.00 0.00 0.00 91 1018.0
20260901080544 74 5 0.0 0.9 0.00 0.00 0.00 91 1018.1
20260901080404 74 5 0.0 0.9 0.00 0.00 0.00 90 1018.0
20260901080138 74 5 0.0 0.9 0.00 0.00 0.00 90 1018.0
20260901080045 74 5 0.0 0.9 0.00 0.00 0.00 90 1018.1
20260901075931 74 5 0.9 0.9 0.00 0.00 0.00 90 1018.0
20260901075839 74 5 0.0 0.9 0.00 0.00 0.00 90 1017.9
20260901075727 74 5 0.0 0.9 0.00 0.00 0.00 89 1017.9
20260901075620 74 5 0.0 0.9 0.00 0.00 0.00 89 1018.0
20260901075527 74 5 0.0 1.7 0.00 0.00 0.00 89 1018.0
20260901075435 74 5 0.0 1.7 0.00 0.00 0.00 88 1018.0
20260901075323 74 5 0.9 1.7 0.00 0.00 0.00 89 1018.0
20260901075230 74 5 0.9 1.7 0.00 0.00 0.00 89 1018.0
20260901075157 74 5 0.9 1.7 0.00 0.00 0.00 89 1017.9
20260901075027 74 5 0.9 1.7 0.00 0.00 0.00 89 1018.0
20260901074934 74 5 0.9 1.7 0.00 0.00 0.00 89 1018.0
20260901074904 74 5 0.9 1.7 0.00 0.00 0.00 88 1018.0
20260901074637 74 5 0.9 1.7 0.00 0.00 0.00 88 1018.0
20260901074544 74 5 0.9 1.7 0.00 0.00 0.00 88 1018.0
20260901074436 74 5 0.9 1.7 0.00 0.00 0.00 88 1018.0
20260901074324 74 5 0.9 1.7 0.00 0.00 0.00 88 1018.0
20260901074232 74 5 0.9 1.7 0.00 0.00 0.00 88 1018.0
20260901074139 74 5 0.9 1.7 0.00 0.00 0.00 88 1017.9
20260901074027 74 5 0.9 1.7 0.00 0.00 0.00 88 1018.0
20260901073939 74 5 0.9 1.7 0.00 0.00 0.00 88 1018.0
20260901073826 74 5 1.7 2.6 0.00 0.00 0.00 88 1018.0
20260901073735 74 5 1.7 2.6 0.00 0.00 0.00 88 1018.0
20260901073623 74 5 1.7 2.6 0.00 0.00 0.00 88 1017.9
20260901073531 74 5 0.9 2.6 0.00 0.00 0.00 88 1018.0
20260901073422 74 5 1.7 2.6 0.00 0.00 0.00 89 1018.0
20260901073354 74 5 1.7 2.6 0.00 0.00 0.00 89 1018.0
20260901073128 74 5 1.7 2.6 0.00 0.00 0.00 89 1018.0
20260901073036 74 5 1.7 2.6 0.00 0.00 0.00 89 1018.0
20260901072924 74 5 1.7 2.6 0.00 0.00 0.00 89 1018.0
20260901072856 74 5 1.7 2.6 0.00 0.00 0.00 89 1018.0
20260901072721 74 5 1.7 2.6 0.00 0.00 0.00 89 1018.0
20260901072629 74 5 1.7 2.6 0.00 0.00 0.00 89 1018.0
20260901072538 74 5 1.7 2.6 0.00 0.00 0.00 89 1017.9
20260901072425 74 5 1.7 2.6 0.00 0.00 0.00 89 1018.0
20260901072353 74 5 1.7 2.6 0.00 0.00 0.00 88 1017.9
20260901072222 74 5 1.7 2.6 0.00 0.00 0.00 88 1018.0
20260901072130 74 5 1.7 2.6 0.00 0.00 0.00 88 1017.9
20260901072058 74 5 1.7 2.6 0.00 0.00 0.00 88 1018.0
20260901072005 74 5 1.7 2.6 0.00 0.00 0.00 88 1018.0
20260901071914 75 5 1.7 2.6 0.00 0.00 0.00 88 1018.0
20260901071630 75 5 1.7 2.6 0.00 0.00 0.00 88 1017.9
20260901071537 75 5 0.9 2.6 0.00 0.00 0.00 88 1018.0
20260901071426 75 5 0.0 0.9 0.00 0.00 0.00 88 1018.0
20260901071333 75 5 0.0 0.9 0.00 0.00 0.00 88 1017.9
20260901071221 75 5 0.0 0.9 0.00 0.00 0.00 88 1018.0
20260901071129 75 5 0.0 1.7 0.00 0.00 0.00 88 1018.0
20260901071021 75 5 0.0 1.7 0.00 0.00 0.00 88 1018.1
20260901070949 75 5 0.0 1.7 0.00 0.00 0.00 88 1017.9
20260901070834 75 5 0.0 1.7 0.00 0.00 0.00 88 1017.9
20260901070721 75 5 0.9 1.7 0.00 0.00 0.00 88 1018.0
20260901070629 75 5 0.0 1.7 0.00 0.00 0.00 88 1018.0
20260901070520 75 5 0.9 1.7 0.00 0.00 0.00 88 1018.0
20260901070449 75 5 0.9 1.7 0.00 0.00 0.00 88 1018.1
20260901070420 75 5 0.9 1.7 0.00 0.00 0.00 88 1018.1
20260901070153 75 5 0.0 0.9 0.00 0.00 0.00 88 1018.0
20260901070040 75 5 0.0 0.9 0.00 0.00 0.00 88 1018.1
20260901065925 75 5 0.0 0.9 0.00 0.00 0.00 89 1018.0
20260901065838 75 5 0.0 0.9 0.00 0.00 0.00 89 1018.0
20260901065727 75 5 0.0 0.9 0.00 0.00 0.00 89 1018.0
20260901065634 75 5 0.0 0.9 0.00 0.00 0.00 89 1018.1
20260901065522 75 5 0.0 0.9 0.00 0.00 0.00 89 1018.1
20260901065427 75 5 0.0 0.9 0.00 0.00 0.00 89 1018.0
20260901065320 75 5 0.9 0.9 0.00 0.00 0.00 89 1018.0
20260901065227 75 5 0.9 0.9 0.00 0.00 0.00 89 1018.0
20260901065134 75 5 0.0 0.9 0.00 0.00 0.00 88 1018.1
20260901065021 75 5 0.0 0.9 0.00 0.00 0.00 88 1018.0
20260901064928 75 5 0.0 0.9 0.00 0.00 0.00 88 1018.1
20260901064903 75 5 0.0 0.9 0.00 0.00 0.00 88 1018.1
20260901064636 75 5 0.0 0.9 0.00 0.00 0.00 87 1018.0
20260901064524 75 5 0.0 0.9 0.00 0.00 0.00 88 1018.1
20260901064432 75 5 0.0 1.7 0.00 0.00 0.00 88 1018.1
20260901064338 76 5 0.0 1.7 0.00 0.00 0.00 88 1018.0
20260901064225 76 5 0.0 1.7 0.00 0.00 0.00 89 1018.0
20260901064131 76 5 0.0 1.7 0.00 0.00 0.00 89 1018.1
20260901064022 76 5 0.0 2.6 0.00 0.00 0.00 89 1018.0
20260901063930 76 5 0.0 2.6 0.00 0.00 0.00 89 1018.1
20260901063858 76 5 0.0 2.6 0.00 0.00 0.00 89 1018.0
20260901063742 76 5 0.9 2.6 0.00 0.00 0.00 88 1018.1
20260901063629 76 5 0.9 2.6 0.00 0.00 0.00 88 1018.1
20260901063557 76 5 1.7 2.6 0.00 0.00 0.00 88 1018.1
20260901063443 76 5 1.7 2.6 0.00 0.00 0.00 88 1018.1
20260901063356 76 5 1.7 2.6 0.00 0.00 0.00 87 1018.1
20260901063150 76 5 1.7 2.6 0.00 0.00 0.00 87 1018.2
20260901063056 76 5 0.9 2.6 0.00 0.00 0.00 87 1018.0
20260901062921 76 5 0.9 1.7 0.00 0.00 0.00 88 1018.1
20260901062828 76 5 0.9 0.9 0.00 0.00 0.00 89 1018.1
20260901062736 76 5 0.9 0.9 0.00 0.00 0.00 89 1018.1
20260901062628 76 5 0.0 0.9 0.00 0.00 0.00 89 1018.1
20260901062535 76 5 0.0 0.9 0.00 0.00 0.00 89 1018.1
20260901062422 76 5 0.0 0.9 0.00 0.00 0.00 89 1018.1
20260901062329 76 5 0.0 0.9 0.00 0.00 0.00 89 1018.1
20260901062238 76 5 0.0 0.9 0.00 0.00 0.00 89 1018.1
20260901062149 76 5 0.0 0.9 0.00 0.00 0.00 89 1018.1
20260901062035 76 5 0.0 0.9 0.00 0.00 0.00 89 1018.2
20260901061943 76 5 0.0 0.9 0.00 0.00 0.00 89 1018.2
20260901061913 76 5 0.0 0.9 0.00 0.00 0.00 88 1018.2
20260901061625 76 5 0.0 0.9 0.00 0.00 0.00 88 1018.3
20260901061537 76 5 0.0 0.9 0.00 0.00 0.00 88 1018.1
20260901061424 76 5 0.0 0.9 0.00 0.00 0.00 88 1018.2
20260901061332 76 5 0.0 0.9 0.00 0.00 0.00 88 1018.3
20260901061239 76 5 0.0 0.9 0.00 0.00 0.00 88 1018.1
20260901061127 76 5 0.0 0.9 0.00 0.00 0.00 88 1018.2
20260901061039 76 5 0.0 0.9 0.00 0.00 0.00 88 1018.2
20260901060925 76 5 0.0 0.9 0.00 0.00 0.00 88 1018.3
20260901060833 76 5 0.0 0.9 0.00 0.00 0.00 88 1018.2
20260901060721 76 5 0.9 0.9 0.00 0.00 0.00 88 1018.2
20260901060627 76 5 0.0 0.9 0.00 0.00 0.00 88 1018.3
20260901060555 76 5 0.0 0.9 0.00 0.00 0.00 88 1018.3
20260901060425 76 5 0.0 0.9 0.00 0.00 0.00 88 1018.3
20260901060356 76 5 0.0 1.7 0.00 0.00 0.00 87 1018.3
20260901060129 76 5 0.0 1.7 0.00 0.00 0.00 87 1018.2
20260901060037 76 5 0.0 1.7 0.00 0.00 0.00 87 1018.3
20260901055928 76 5 0.0 1.7 0.00 0.00 0.00 86 1018.3
20260901055834 76 5 0.0 1.7 0.00 0.00 0.00 87 1018.3
20260901055722 76 5 0.9 1.7 0.00 0.00 0.00 87 1018.3
20260901055629 76 5 0.9 1.7 0.00 0.00 0.00 87 1018.3
20260901055556 76 5 0.9 1.7 0.00 0.00 0.00 87 1018.3
20260901055423 76 5 0.9 1.7 0.00 0.00 0.00 88 1018.3
20260901055335 76 5 0.9 1.7 0.00 0.00 0.00 88 1018.3
20260901055222 76 5 0.9 1.7 0.00 0.00 0.00 87 1018.2
20260901055130 76 5 0.9 1.7 0.00 0.00 0.00 88 1018.3
20260901055036 76 5 0.9 1.7 0.00 0.00 0.00 87 1018.2
20260901054943 76 5 0.9 1.7 0.00 0.00 0.00 87 1018.2
20260901054918 76 5 0.9 1.7 0.00 0.00 0.00 87 1018.2
20260901054632 76 5 0.9 1.7 0.00 0.00 0.00 87 1018.2
20260901054539 76 5 0.9 1.7 0.00 0.00 0.00 88 1018.2
20260901054426 76 5 1.7 1.7 0.00 0.00 0.00 88 1018.1
20260901054333 76 5 0.9 1.7 0.00 0.00 0.00 88 1018.3
20260901054300 76 5 0.9 1.7 0.00 0.00 0.00 88 1018.3
20260901054130 76 5 0.0 1.7 0.00 0.00 0.00 88 1018.3
20260901054037 76 5 0.0 1.7 0.00 0.00 0.00 88 1018.3
20260901053924 76 5 0.0 2.6 0.00 0.00 0.00 88 1018.4
20260901053832 76 5 0.0 2.6 0.00 0.00 0.00 88 1018.3
20260901053739 76 5 0.0 2.6 0.00 0.00 0.00 88 1018.3
20260901053631 76 5 0.9 2.6 0.00 0.00 0.00 88 1018.3
20260901053538 76 5 0.9 2.6 0.00 0.00 0.00 87 1018.3
20260901053426 76 5 1.7 2.6 0.00 0.00 0.00 87 1018.4
20260901053356 76 5 1.7 2.6 0.00 0.00 0.00 87 1018.4
20260901053129 76 5 1.7 2.6 0.00 0.00 0.00 87 1018.4
20260901053022 76 5 1.7 2.6 0.00 0.00 0.00 87 1018.3
20260901052930 76 5 1.7 2.6 0.00 0.00 0.00 87 1018.4
20260901052837 76 5 1.7 2.6 0.00 0.00 0.00 87 1018.4
20260901052725 77 5 1.7 2.6 0.00 0.00 0.00 87 1018.3
20260901052633 77 5 1.7 2.6 0.00 0.00 0.00 87 1018.3
20260901052524 77 5 1.7 2.6 0.00 0.00 0.00 87 1018.4
20260901052432 77 5 1.7 2.6 0.00 0.00 0.00 87 1018.3
20260901052340 77 5 1.7 2.6 0.00 0.00 0.00 87 1018.4
20260901052227 77 5 1.7 2.6 0.00 0.00 0.00 87 1018.4
20260901052134 77 5 1.7 2.6 0.00 0.00 0.00 87 1018.4
20260901052024 77 5 1.7 2.6 0.00 0.00 0.00 87 1018.4
20260901051930 77 5 1.7 2.6 0.00 0.00 0.00 87 1018.4
20260901051900 77 5 1.7 2.6 0.00 0.00 0.00 87 1018.4
20260901051633 77 5 0.9 2.6 0.00 0.00 0.00 87 1018.4
20260901051521 77 5 1.7 2.6 0.00 0.00 0.00 87 1018.4
20260901051451 77 5 1.7 2.6 0.00 0.00 0.00 87 1018.4
20260901051338 77 5 1.7 2.6 0.00 0.00 0.00 87 1018.4
20260901051223 77 5 1.7 2.6 0.00 0.00 0.00 87 1018.3
20260901051131 77 5 1.7 2.6 0.00 0.00 0.00 87 1018.4
20260901051038 77 5 2.6 2.6 0.00 0.00 0.00 87 1018.3
20260901050926 77 5 1.7 2.6 0.00 0.00 0.00 87 1018.4
20260901050838 77 5 1.7 2.6 0.00 0.00 0.00 87 1018.3
20260901050726 77 5 1.7 2.6 0.00 0.00 0.00 87 1018.3
20260901050633 77 5 1.7 2.6 0.00 0.00 0.00 87 1018.3
20260901050521 77 5 1.7 2.6 0.00 0.00 0.00 86 1018.3
20260901050428 77 5 1.7 2.6 0.00 0.00 0.00 86 1018.3
20260901050403 77 5 1.7 2.6 0.00 0.00 0.00 86 1018.3
20260901050136 77 5 1.7 2.6 0.00 0.00 0.00 86 1018.4
20260901050024 77 5 1.7 2.6 0.00 0.00 0.00 86 1018.3
20260901045932 77 5 1.7 2.6 0.00 0.00 0.00 86 1018.3
20260901045824 77 5 0.9 1.7 0.00 0.00 0.00 86 1018.2
20260901045731 77 5 0.9 1.7 0.00 0.00 0.00 87 1018.3
20260901045638 77 5 0.9 1.7 0.00 0.00 0.00 87 1018.3
20260901045526 77 5 0.9 1.7 0.00 0.00 0.00 87 1018.3
20260901045433 77 5 0.9 1.7 0.00 0.00 0.00 87 1018.3
20260901045320 77 5 0.9 1.7 0.00 0.00 0.00 87 1018.3
20260901045231 77 5 0.9 1.7 0.00 0.00 0.00 86 1018.3
20260901045139 77 5 0.9 1.7 0.00 0.00 0.00 86 1018.3
20260901045027 77 5 1.7 1.7 0.00 0.00 0.00 86 1018.3
20260901044953 77 5 0.9 1.7 0.00 0.00 0.00 86 1018.2
20260901044906 77 5 0.9 1.7 0.00 0.00 0.00 86 1018.2
20260901044623 77 5 0.9 1.7 0.00 0.00 0.00 87 1018.2
20260901044531 77 5 0.0 1.7 0.00 0.00 0.00 87 1018.3
20260901044439 77 5 0.0 0.9 0.00 0.00 0.00 87 1018.2
20260901044348 77 5 0.0 0.9 0.00 0.00 0.00 87 1018.3
20260901044233 77 5 0.0 0.9 0.00 0.00 0.00 87 1018.2
20260901044123 77 5 0.0 0.9 0.00 0.00 0.00 87 1018.2
20260901044031 77 5 0.0 0.9 0.00 0.00 0.00 87 1018.2
20260901043939 77 5 0.0 0.9 0.00 0.00 0.00 87 1018.2
20260901043827 77 5 0.0 0.9 0.00 0.00 0.00 87 1018.2
20260901043735 77 5 0.0 0.9 0.00 0.00 0.00 87 1018.1
20260901043643 77 5 0.9 1.7 0.00 0.00 0.00 87 1018.2
20260901043550 77 5 0.9 1.7 0.00 0.00 0.00 87 1018.2
20260901043440 77 5 0.9 1.7 0.00 0.00 0.00 87 1018.2
20260901043409 77 5 0.9 1.7 0.00 0.00 0.00 87 1018.2
20260901043143 77 5 0.9 1.7 0.00 0.00 0.00 87 1018.2
20260901043028 77 5 0.9 1.7 0.00 0.00 0.00 87 1018.2
20260901042920 77 5 0.9 1.7 0.00 0.00 0.00 87 1018.2
20260901042828 77 5 0.9 1.7 0.00 0.00 0.00 87 1018.2
20260901042734 77 5 0.9 1.7 0.00 0.00 0.00 86 1018.1
20260901042622 77 5 1.7 1.7 0.00 0.00 0.00 86 1018.2
20260901042529 77 5 1.7 1.7 0.00 0.00 0.00 86 1018.2
20260901042436 77 5 1.7 1.7 0.00 0.00 0.00 85 1018.2
20260901042347 77 5 1.7 1.7 0.00 0.00 0.00 85 1018.3
20260901042234 77 5 1.7 1.7 0.00 0.00 0.00 85 1018.2
20260901042121 77 5 1.7 1.7 0.00 0.00 0.00 84 1018.2
20260901042029 77 5 1.7 1.7 0.00 0.00 0.00 84 1018.2
20260901041935 77 5 1.7 1.7 0.00 0.00 0.00 84 1018.2
20260901041909 77 5 0.9 1.7 0.00 0.00 0.00 84 1018.2
20260901041622 77 5 0.9 1.7 0.00 0.00 0.00 84 1018.2
20260901041530 77 5 0.9 1.7 0.00 0.00 0.00 84 1018.2
20260901041437 77 5 0.9 1.7 0.00 0.00 0.00 84 1018.2
20260901041324 78 5 0.9 1.7 0.00 0.00 0.00 84 1018.3
20260901041235 78 5 0.9 1.7 0.00 0.00 0.00 84 1018.2
20260901041121 78 5 0.9 1.7 0.00 0.00 0.00 84 1018.2
20260901041049 78 5 0.0 0.9 0.00 0.00 0.00 85 1018.2
20260901040935 78 5 0.9 0.9 0.00 0.00 0.00 85 1018.2
20260901040843 78 5 0.0 0.9 0.00 0.00 0.00 85 1018.2
20260901040728 78 5 0.0 0.0 0.00 0.00 0.00 86 1018.2
20260901040635 78 5 0.0 0.9 0.00 0.00 0.00 86 1018.2
20260901040548 78 5 0.0 0.9 0.00 0.00 0.00 86 1018.2
20260901040515 78 5 0.0 0.9 0.00 0.00 0.00 86 1018.2
20260901040424 78 5 0.0 0.9 0.00 0.00 0.00 86 1018.1
20260901040137 78 5 0.0 0.9 0.00 0.00 0.00 86 1018.3
20260901040026 78 5 0.0 0.9 0.00 0.00 0.00 86 1018.2
20260901035936 78 5 0.0 0.9 0.00 0.00 0.00 86 1018.2
20260901035825 78 5 0.0 0.9 0.00 0.00 0.00 85 1018.2
20260901035733 78 5 0.0 0.9 0.00 0.00 0.00 85 1018.2
20260901035640 78 5 0.0 0.9 0.00 0.00 0.00 85 1018.3
20260901035527 78 5 0.0 0.9 0.00 0.00 0.00 85 1018.3
20260901035435 78 5 0.0 0.9 0.00 0.00 0.00 86 1018.2
20260901035347 78 5 0.0 0.9 0.00 0.00 0.00 85 1018.3
20260901035235 78 5 0.0 0.0 0.00 0.00 0.00 85 1018.2
20260901035142 78 5 0.0 0.0 0.00 0.00 0.00 85 1018.2
20260901035030 78 5 0.0 0.0 0.00 0.00 0.00 85 1018.2
20260901034910 78 5 0.0 0.0 0.00 0.00 0.00 85 1018.2
20260901034624 78 5 0.0 0.0 0.00 0.00 0.00 84 1018.2
20260901034532 78 5 0.0 0.0 0.00 0.00 0.00 84 1018.1
20260901034439 78 5 0.0 0.0 0.00 0.00 0.00 84 1018.2
20260901034326 78 5 0.0 0.0 0.00 0.00 0.00 84 1018.1
20260901034254 78 5 0.0 0.0 0.00 0.00 0.00 84 1018.1
20260901034124 78 5 0.0 0.0 0.00 0.00 0.00 84 1018.0
20260901034030 78 5 0.0 0.0 0.00 0.00 0.00 84 1018.1
20260901033938 78 5 0.0 0.0 0.00 0.00 0.00 84 1018.1
20260901033826 78 5 0.0 0.9 0.00 0.00 0.00 83 1018.1
20260901033734 78 5 0.0 0.9 0.00 0.00 0.00 83 1018.1
20260901033646 79 5 0.0 0.9 0.00 0.00 0.00 83 1018.1
20260901033532 79 5 0.0 0.9 0.00 0.00 0.00 83 1018.2
20260901033439 79 5 0.0 0.9 0.00 0.00 0.00 83 1018.2
20260901033409 79 5 0.0 0.9 0.00 0.00 0.00 82 1018.2
20260901033123 79 5 0.0 0.9 0.00 0.00 0.00 83 1018.3
20260901033034 79 5 0.0 0.9 0.00 0.00 0.00 83 1018.3
20260901032922 79 5 0.9 0.9 0.00 0.00 0.00 83 1018.2
20260901032829 79 5 0.9 0.9 0.00 0.00 0.00 83 1018.3
20260901032737 79 5 0.9 0.9 0.00 0.00 0.00 83 1018.3
20260901032624 79 5 0.9 0.9 0.00 0.00 0.00 83 1018.3
20260901032535 79 5 0.0 0.9 0.00 0.00 0.00 83 1018.4
20260901032422 79 5 0.0 0.0 0.00 0.00 0.00 83 1018.4
20260901032330 79 5 0.0 0.0 0.00 0.00 0.00 83 1018.3
20260901032238 80 5 0.0 0.0 0.00 0.00 0.00 83 1018.3
20260901032125 80 5 0.0 0.0 0.00 0.00 0.00 83 1018.3
20260901032032 80 5 0.0 0.0 0.00 0.00 0.00 83 1018.4
20260901032004 80 5 0.0 0.0 0.00 0.00 0.00 83 1018.4
20260901031934 80 5 0.0 0.0 0.00 0.00 0.00 83 1018.3
20260901031627 80 5 0.0 0.0 0.00 0.00 0.00 83 1018.2
20260901031535 80 5 0.0 0.0 0.00 0.00 0.00 83 1018.2
20260901031427 80 5 0.0 0.0 0.00 0.00 0.00 83 1018.2
20260901031334 80 5 0.0 0.0 0.00 0.00 0.00 83 1018.3
20260901031242 80 5 0.0 0.0 0.00 0.00 0.00 83 1018.3
20260901031128 80 5 0.0 0.0 0.00 0.00 0.00 83 1018.3
20260901031036 80 5 0.0 0.0 0.00 0.00 0.00 84 1018.3
20260901030924 80 5 0.0 0.0 0.00 0.00 0.00 83 1018.3
20260901030835 80 5 0.0 0.0 0.00 0.00 0.00 83 1018.2
20260901030723 80 5 0.0 0.0 0.00 0.00 0.00 83 1018.3
20260901030630 80 5 0.0 0.0 0.00 0.00 0.00 82 1018.2
20260901030536 80 5 0.0 0.0 0.00 0.00 0.00 82 1018.3
20260901030424 80 5 0.0 0.0 0.00 0.00 0.00 82 1018.3
20260901030358 80 5 0.0 0.0 0.00 0.00 0.00 82 1018.3
20260901030132 80 5 0.0 0.0 0.00 0.00 0.00 82 1018.3
20260901030039 80 5 0.0 0.0 0.00 0.00 0.00 81 1018.3
20260901025948 80 5 0.0 0.0 0.00 0.00 0.00 81 1018.4
20260901025833 80 5 0.0 0.0 0.00 0.00 0.00 81 1018.3
20260901025724 80 5 0.0 0.0 0.00 0.00 0.00 81 1018.3
20260901025632 80 5 0.0 0.0 0.00 0.00 0.00 81 1018.3
20260901025538 80 5 0.0 0.0 0.00 0.00 0.00 81 1018.3
20260901025425 80 5 0.0 0.0 0.00 0.00 0.00 81 1018.3
20260901025333 80 5 0.0 0.0 0.00 0.00 0.00 81 1018.3
20260901025220 80 5 0.0 0.0 0.00 0.00 0.00 81 1018.4
20260901025133 81 5 0.0 0.0 0.00 0.00 0.00 81 1018.3
20260901025101 81 5 0.0 0.0 0.00 0.00 0.00 81 1018.3
20260901024947 81 5 0.0 0.0 0.00 0.00 0.00 81 1018.3
20260901024856 81 5 0.0 0.0 0.00 0.00 0.00 80 1018.3
20260901024630 81 5 0.0 0.0 0.00 0.00 0.00 80 1018.3
20260901024521 81 5 0.0 0.0 0.00 0.00 0.00 80 1018.4
20260901024428 81 5 0.0 0.0 0.00 0.00 0.00 80 1018.3
20260901024355 81 5 0.0 0.0 0.00 0.00 0.00 79 1018.3
20260901024222 81 5 0.0 0.0 0.00 0.00 0.00 79 1018.3
20260901024130 81 5 0.0 0.0 0.00 0.00 0.00 79 1018.3
20260901024038 81 5 0.0 0.0 0.00 0.00 0.00 79 1018.3
20260901023945 81 5 0.0 0.0 0.00 0.00 0.00 79 1018.2
20260901023836 81 5 0.0 0.0 0.00 0.00 0.00 78 1018.2
20260901023744 81 5 0.0 0.0 0.00 0.00 0.00 78 1018.2
20260901023630 81 5 0.0 0.0 0.00 0.00 0.00 78 1018.3
20260901023558 81 5 0.0 0.0 0.00 0.00 0.00 78 1018.2
20260901023424 81 5 0.0 0.9 0.00 0.00 0.00 78 1018.2
20260901023358 81 5 0.0 0.9 0.00 0.00 0.00 78 1018.2
20260901023131 81 5 0.0 0.9 0.00 0.00 0.00 78 1018.1
20260901023100 81 5 0.0 0.9 0.00 0.00 0.00 78 1018.2
20260901022927 81 5 0.0 0.9 0.00 0.00 0.00 78 1018.2
20260901022833 81 5 0.0 0.9 0.00 0.00 0.00 78 1018.2
20260901022722 81 5 0.0 0.9 0.00 0.00 0.00 78 1018.1
20260901022654 81 5 0.0 0.9 0.00 0.00 0.00 77 1018.2
20260901022521 81 5 0.0 0.9 0.00 0.00 0.00 77 1018.1
20260901022428 81 259 0.0 0.9 0.00 0.00 0.00 77 1018.1
20260901022336 81 259 0.0 0.0 0.00 0.00 0.00 77 1018.1
20260901022242 81 259 0.0 0.0 0.00 0.00 0.00 77 1018.1
20260901022129 81 259 0.0 0.9 0.00 0.00 0.00 77 1018.1
20260901022041 81 259 0.0 0.9 0.00 0.00 0.00 77 1018.0
20260901021949 82 259 0.0 0.9 0.00 0.00 0.00 77 1018.1
20260901021858 82 259 0.0 1.7 0.00 0.00 0.00 76 1018.1
20260901021632 82 259 0.0 1.7 0.00 0.00 0.00 76 1018.1
20260901021539 82 259 0.0 1.7 0.00 0.00 0.00 76 1018.1
20260901021431 82 259 0.0 1.7 0.00 0.00 0.00 76 1018.1
20260901021339 82 259 0.0 1.7 0.00 0.00 0.00 75 1018.1
20260901021246 82 259 0.0 1.7 0.00 0.00 0.00 75 1018.0
20260901021133 82 259 0.9 1.7 0.00 0.00 0.00 75 1018.0
20260901021021 82 259 0.9 1.7 0.00 0.00 0.00 75 1018.0
20260901020948 82 259 0.9 1.7 0.00 0.00 0.00 74 1018.1
20260901020856 82 259 0.9 1.7 0.00 0.00 0.00 75 1018.1
20260901020727 82 259 0.9 1.7 0.00 0.00 0.00 75 1018.0
20260901020635 82 259 0.9 1.7 0.00 0.00 0.00 74 1018.0
20260901020523 82 259 0.9 1.7 0.00 0.00 0.00 75 1018.0
20260901020430 83 259 0.0 0.9 0.00 0.00 0.00 75 1018.0
20260901020403 83 259 0.0 0.9 0.00 0.00 0.00 74 1018.0
20260901020136 83 259 0.0 0.9 0.00 0.00 0.00 74 1018.0
20260901020043 83 259 0.0 0.9 0.00 0.00 0.00 75 1018.0
20260901015930 83 259 0.0 0.0 0.00 0.00 0.00 75 1018.0
20260901015838 83 259 0.0 0.0 0.00 0.00 0.00 75 1017.9
20260901015745 83 259 0.0 0.0 0.00 0.00 0.00 75 1017.9
20260901015632 83 259 0.0 0.0 0.00 0.00 0.00 74 1017.9
20260901015523 83 259 0.0 0.0 0.00 0.00 0.00 74 1017.9
20260901015430 83 259 0.0 0.0 0.00 0.00 0.00 74 1017.9
20260901015358 83 259 0.0 0.0 0.00 0.00 0.00 74 1017.9
20260901015225 83 259 0.0 0.0 0.00 0.00 0.00 74 1017.9
20260901015132 83 259 0.0 0.0 0.00 0.00 0.00 74 1017.9
20260901015058 83 259 0.0 0.0 0.00 0.00 0.00 74 1017.9
20260901014949 83 259 0.0 0.0 0.00 0.00 0.00 73 1017.9
20260901014857 83 259 0.0 0.0 0.00 0.00 0.00 73 1017.9
20260901014632 84 259 0.0 0.0 0.00 0.00 0.00 73 1017.8
20260901014539 84 259 0.0 0.0 0.00 0.00 0.00 73 1017.8
20260901014428 84 259 0.0 0.9 0.00 0.00 0.00 73 1017.8
20260901014338 84 259 0.0 0.9 0.00 0.00 0.00 73 1017.7
20260901014247 84 259 0.0 1.7 0.00 0.00 0.00 72 1017.7
20260901014133 84 259 0.0 1.7 0.00 0.00 0.00 72 1017.8
20260901014021 84 259 0.0 1.7 0.00 0.00 0.00 72 1017.8
20260901013949 84 259 0.0 1.7 0.00 0.00 0.00 72 1017.7
20260901013856 84 259 0.0 1.7 0.00 0.00 0.00 72 1017.8
20260901013727 84 259 0.0 1.7 0.00 0.00 0.00 72 1017.9
20260901013635 84 259 0.0 1.7 0.00 0.00 0.00 72 1017.8
20260901013522 84 259 0.9 1.7 0.00 0.00 0.00 72 1017.8
20260901013429 84 259 0.9 1.7 0.00 0.00 0.00 72 1017.9
20260901013400 85 259 0.9 1.7 0.00 0.00 0.00 71 1017.9
20260901013137 85 259 0.0 0.9 0.00 0.00 0.00 71 1017.8
20260901013025 85 259 0.0 0.0 0.00 0.00 0.00 71 1017.8
20260901012933 85 259 0.0 0.0 0.00 0.00 0.00 70 1017.8
20260901012820 85 259 0.0 0.0 0.00 0.00 0.00 70 1017.8
20260901012728 85 259 0.0 0.9 0.00 0.00 0.00 70 1017.8
20260901012656 85 259 0.0 0.9 0.00 0.00 0.00 70 1017.7
20260901012527 85 259 0.0 0.9 0.00 0.00 0.00 70 1017.7
20260901012434 85 259 0.0 0.9 0.00 0.00 0.00 69 1017.7
20260901012323 85 259 0.0 0.9 0.00 0.00 0.00 69 1017.8
20260901012231 85 259 0.0 0.9 0.00 0.00 0.00 69 1017.7
20260901012138 85 259 0.0 0.9 0.00 0.00 0.00 69 1017.7
20260901012030 85 259 0.0 0.9 0.00 0.00 0.00 69 1017.7
20260901011938 85 259 0.0 0.9 0.00 0.00 0.00 69 1017.6
20260901011909 86 259 0.0 0.9 0.00 0.00 0.00 69 1017.6
20260901011623 86 259 0.0 0.9 0.00 0.00 0.00 69 1017.7
20260901011535 86 259 0.0 0.9 0.00 0.00 0.00 68 1017.6
20260901011422 86 259 0.0 0.9 0.00 0.00 0.00 68 1017.7
20260901011329 86 259 0.0 0.9 0.00 0.00 0.00 68 1017.7
20260901011237 86 259 0.0 0.9 0.00 0.00 0.00 68 1017.6
20260901011143 86 259 0.0 0.9 0.00 0.00 0.00 68 1017.6
20260901011031 86 259 0.0 0.9 0.00 0.00 0.00 68 1017.6
20260901010922 86 259 0.0 0.9 0.00 0.00 0.00 68 1017.6
20260901010850 86 259 0.0 0.9 0.00 0.00 0.00 68 1017.6
20260901010737 86 259 0.0 1.7 0.00 0.00 0.00 67 1017.6
20260901010623 86 259 0.0 1.7 0.00 0.00 0.00 67 1017.6
20260901010550 87 259 0.0 2.6 0.00 0.00 0.00 67 1017.6
20260901010437 87 259 0.0 2.6 0.00 0.00 0.00 67 1017.6
20260901010412 87 259 0.9 2.6 0.00 0.00 0.00 67 1017.6
20260901010147 87 259 0.9 2.6 0.00 0.00 0.00 67 1017.6
20260901010033 87 259 0.9 2.6 0.00 0.00 0.00 67 1017.6
20260901005940 87 259 0.9 2.6 0.00 0.00 0.00 66 1017.6
20260901005828 87 259 0.9 4.3 0.00 0.00 0.00 66 1017.5
20260901005755 87 259 0.9 4.3 0.00 0.00 0.00 66 1017.6
20260901005626 87 212 0.9 4.3 0.00 0.00 0.00 65 1017.5
20260901005533 87 212 1.7 4.3 0.00 0.00 0.00 65 1017.6
20260901005501 87 208 1.7 4.3 0.00 0.00 0.00 65 1017.4
20260901005327 87 198 1.7 4.3 0.00 0.00 0.00 65 1017.4
20260901005235 87 213 1.7 4.3 0.00 0.00 0.00 65 1017.4
20260901005127 87 200 2.6 4.3 0.00 0.00 0.00 65 1017.3
20260901005054 87 215 2.6 4.3 0.00 0.00 0.00 65 1017.4
20260901004940 87 211 2.6 3.5 0.00 0.00 0.00 65 1017.3
20260901004910 87 189 2.6 3.5 0.00 0.00 0.00 65 1017.3
20260901004623 87 207 1.7 3.5 0.00 0.00 0.00 64 1017.2
20260901004536 87 198 1.7 3.5 0.00 0.00 0.00 64 1017.2
20260901004443 87 223 0.9 3.5 0.00 0.00 0.00 64 1017.2
20260901004330 88 238 1.7 3.5 0.00 0.00 0.00 64 1017.3
20260901004238 88 246 1.7 3.5 0.00 0.00 0.00 64 1017.2
20260901004125 88 209 1.7 3.5 0.00 0.00 0.00 64 1017.2
20260901004032 88 216 1.7 4.3 0.00 0.00 0.00 64 1017.2
20260901003923 88 205 1.7 4.3 0.00 0.00 0.00 64 1017.3
20260901003831 88 207 1.7 4.3 0.00 0.00 0.00 64 1017.2
20260901003800 88 213 1.7 4.3 0.00 0.00 0.00 63 1017.1
20260901003625 88 196 2.6 4.3 0.00 0.00 0.00 63 1017.1
20260901003532 88 214 2.6 4.3 0.00 0.00 0.00 63 1017.1
20260901003459 88 205 2.6 4.3 0.00 0.00 0.00 63 1017.2
20260901003411 88 223 2.6 4.3 0.00 0.00 0.00 63 1017.2
20260901003124 88 194 2.6 4.3 0.00 0.00 0.00 63 1017.1
20260901003031 88 201 2.6 5.2 0.00 0.00 0.00 63 1017.1
20260901002939 88 216 2.6 5.2 0.00 0.00 0.00 63 1017.1
20260901002827 88 205 3.5 5.2 0.00 0.00 0.00 63 1017.2
20260901002738 88 203 3.5 5.2 0.00 0.00 0.00 62 1017.2
20260901002626 88 196 2.6 5.2 0.00 0.00 0.00 63 1017.2
20260901002534 88 185 3.5 5.2 0.00 0.00 0.00 62 1017.2
20260901002421 88 213 3.5 5.2 0.00 0.00 0.00 62 1017.2
20260901002328 88 201 3.5 5.2 0.00 0.00 0.00 62 1017.2
20260901002235 88 209 3.5 5.2 0.00 0.00 0.00 62 1017.2
20260901002127 88 209 4.3 5.2 0.00 0.00 0.00 62 1017.1
20260901002036 88 192 3.5 5.2 0.00 0.00 0.00 62 1017.1
20260901001942 89 217 2.6 4.3 0.00 0.00 0.00 62 1017.2
20260901001913 89 194 2.6 4.3 0.00 0.00 0.00 62 1017.2
20260901001630 89 203 3.5 4.3 0.00 0.00 0.00 62 1017.1
20260901001556 89 190 3.5 4.3 0.00 0.00 0.00 62 1017.2
20260901001422 89 210 2.6 4.3 0.00 0.00 0.00 62 1017.2
20260901001330 89 184 3.5 5.2 0.00 0.00 0.00 62 1017.2
20260901001237 89 182 3.5 5.2 0.00 0.00 0.00 62 1017.2
20260901001124 89 209 2.6 5.2 0.00 0.00 0.00 61 1017.2
20260901001037 89 203 2.6 5.2 0.00 0.00 0.00 61 1017.2
20260901000925 89 190 2.6 5.2 0.00 0.00 0.00 61 1017.1
20260901000834 89 198 2.6 5.2 0.00 0.00 0.00 61 1017.1
20260901000741 89 196 3.5 5.2 0.00 0.00 0.00 61 1017.2
20260901000628 89 207 3.5 5.2 0.00 0.00 0.00 61 1017.2
20260901000535 89 207 3.5 5.2 0.00 0.00 0.00 61 1017.2
20260901000428 89 212 2.6 5.2 0.00 0.00 0.00 61 1017.2
20260901000358 89 200 2.6 5.2 0.00 0.00 0.00 61 1017.2
20260901000150 89 194 2.6 5.2 0.00 0.00 0.00 61 1017.2
20260901000037 89 190 1.7 5.2 0.00 0.00 0.00 61 1017.2
20260831235929 89 186 1.7 7.0 0.00 0.00 0.00 61 1017.2
20260831235836 90 203 1.7 7.0 0.00 0.00 0.00 61 1017.2
20260831235745 90 247 3.5 7.0 0.00 0.00 0.00 61 1017.2
20260831235631 90 192 3.5 7.0 0.00 0.00 0.00 61 1017.1
20260831235539 90 213 3.5 7.0 0.00 0.00 0.00 61 1017.2
20260831235426 90 197 2.6 7.0 0.00 0.00 0.00 61 1017.1
20260831235337 90 201 3.5 7.0 0.00 0.00 0.00 60 1017.2
20260831235224 90 183 4.3 7.0 0.00 0.00 0.00 60 1017.2
20260831235152 90 195 4.3 7.0 0.00 0.00 0.00 60 1017.2
20260831235039 90 196 3.5 6.1 0.00 0.00 0.00 61 1017.3
20260831234926 90 210 2.6 4.3 0.00 0.00 0.00 60 1017.3
20260831234900 90 207 3.5 4.3 0.00 0.00 0.00 60 1017.3
20260831234654 90 202 3.5 4.3 0.00 0.00 0.00 60 1017.2
20260831234521 90 202 2.6 6.1 0.00 0.00 0.00 60 1017.2
20260831234428 91 207 2.6 6.1 0.00 0.00 0.00 60 1017.2
20260831234335 91 200 3.5 6.1 0.00 0.00 0.00 60 1017.2
20260831234222 91 180 2.6 6.1 0.00 0.00 0.00 60 1017.1
20260831234132 91 192 2.6 6.1 0.00 0.00 0.00 59 1017.3
20260831234040 91 207 2.6 6.1 0.00 0.00 0.00 59 1017.2
20260831233927 91 174 3.5 6.1 0.00 0.00 0.00 59 1017.3
20260831233855 91 196 3.5 6.1 0.00 0.00 0.00 58 1017.2
20260831233723 91 178 3.5 6.1 0.00 0.00 0.00 58 1017.2
20260831233631 91 198 3.5 6.1 0.00 0.00 0.00 58 1017.2
20260831233523 91 179 3.5 6.1 0.00 0.00 0.00 58 1017.2
20260831233430 91 153 3.5 6.1 0.00 0.00 0.00 57 1017.2
20260831233402 91 147 3.5 6.1 0.00 0.00 0.00 57 1017.2
20260831233134 91 190 3.5 6.1 0.00 0.00 0.00 57 1017.2
20260831233026 91 184 3.5 6.1 0.00 0.00 0.00 57 1017.2
20260831232934 91 186 2.6 6.1 0.00 0.00 0.00 57 1017.2
20260831232821 91 188 1.7 4.3 0.00 0.00 0.00 57 1017.2
20260831232748 91 220 1.7 5.2 0.00 0.00 0.00 57 1017.3
20260831232635 91 132 2.6 5.2 0.00 0.00 0.00 56 1017.2
20260831232522 91 152 2.6 5.2 0.00 0.00 0.00 57 1017.3
20260831232434 91 188 2.6 7.0 0.00 0.00 0.00 56 1017.2
20260831232321 91 156 1.7 7.0 0.00 0.00 0.00 58 1017.2
20260831232250 91 154 1.7 7.0 0.00 0.00 0.00 57 1017.2
20260831232136 92 142 2.6 7.0 0.00 0.00 0.00 57 1017.3
20260831232024 92 189 3.5 7.0 0.00 0.00 0.00 57 1017.2
20260831231931 92 173 4.3 7.0 0.00 0.00 0.00 57 1017.2
20260831231904 92 227 4.3 7.0 0.00 0.00 0.00 57 1017.2
20260831231637 92 156 4.3 7.0 0.00 0.00 0.00 57 1017.2
20260831231524 92 126 3.5 7.0 0.00 0.00 0.00 57 1017.2
20260831231432 92 135 2.6 7.0 0.00 0.00 0.00 57 1017.1
20260831231343 92 142 1.7 7.0 0.00 0.00 0.00 58 1017.2
20260831231229 92 163 1.7 7.8 0.00 0.00 0.00 57 1017.2
20260831231138 92 245 2.6 7.8 0.00 0.00 0.00 57 1017.2
20260831231025 92 178 4.3 7.8 0.00 0.00 0.00 57 1017.3
20260831230934 92 182 4.3 7.8 0.00 0.00 0.00 57 1017.3
20260831230840 92 140 4.3 7.8 0.00 0.00 0.00 56 1017.3
20260831230730 92 103 3.5 7.8 0.00 0.00 0.00 55 1017.2
20260831230638 93 129 3.5 7.8 0.00 0.00 0.00 55 1017.3
20260831230547 93 134 3.5 7.8 0.00 0.00 0.00 55 1017.3
20260831230433 93 119 3.5 7.8 0.00 0.00 0.00 55 1017.3
20260831230403 93 134 3.5 7.0 0.00 0.00 0.00 55 1017.3
20260831230120 93 173 3.5 6.1 0.00 0.00 0.00 55 1017.2
20260831230027 93 146 1.7 6.1 0.00 0.00 0.00 55 1017.3
20260831225933 93 181 2.6 6.1 0.00 0.00 0.00 54 1017.3
20260831225821 93 169 3.5 6.1 0.00 0.00 0.00 56 1017.3
20260831225730 93 138 3.5 6.1 0.00 0.00 0.00 55 1017.3
20260831225620 93 171 3.5 6.1 0.00 0.00 0.00 55 1017.4
20260831225527 93 202 3.5 6.1 0.00 0.00 0.00 54 1017.2
20260831225435 93 226 2.6 7.0 0.00 0.00 0.00 55 1017.2
20260831225322 93 187 3.5 7.0 0.00 0.00 0.00 54 1017.4
20260831225229 93 175 2.6 7.0 0.00 0.00 0.00 54 1017.2
20260831225120 93 184 1.7 7.0 0.00 0.00 0.00 56 1017.2
20260831225028 93 158 2.6 7.0 0.00 0.00 0.00 55 1017.2
20260831224936 93 144 3.5 7.0 0.00 0.00 0.00 54 1017.2
20260831224906 93 151 3.5 7.0 0.00 0.00 0.00 55 1017.2
20260831224700 93 115 4.3 7.0 0.00 0.00 0.00 54 1017.3
20260831224532 93 182 3.5 6.1 0.00 0.00 0.00 55 1017.2
20260831224438 93 191 2.6 7.0 0.00 0.00 0.00 55 1017.4
20260831224324 93 136 1.7 7.0 0.00 0.00 0.00 55 1017.3
20260831224232 93 146 1.7 7.0 0.00 0.00 0.00 55 1017.3
20260831224140 93 143 0.9 7.0 0.00 0.00 0.00 53 1017.3
20260831224027 93 142 2.6 7.0 0.00 0.00 0.00 53 1017.2
20260831223920 94 142 4.3 7.0 0.00 0.00 0.00 53 1017.4
20260831223847 94 142 3.5 7.0 0.00 0.00 0.00 55 1017.4
20260831223733 94 142 3.5 7.0 0.00 0.00 0.00 54 1017.4
20260831223620 94 141 2.6 7.0 0.00 0.00 0.00 54 1017.4
20260831223527 94 150 1.7 7.0 0.00 0.00 0.00 53 1017.4
20260831223436 94 168 1.7 7.0 0.00 0.00 0.00 53 1017.4
20260831223410 94 116 1.7 3.5 0.00 0.00 0.00 53 1017.4
20260831223122 94 90 1.7 3.5 0.00 0.00 0.00 52 1017.3
20260831223030 94 44 1.7 3.5 0.00 0.00 0.00 52 1017.4
20260831222937 94 74 1.7 3.5 0.00 0.00 0.00 53 1017.3
20260831222849 94 78 1.7 3.5 0.00 0.00 0.00 55 1017.5
20260831222735 94 19 2.6 3.5 0.00 0.00 0.00 55 1017.4
20260831222622 94 28 1.7 3.5 0.00 0.00 0.00 53 1017.4
20260831222550 94 42 1.7 5.2 0.00 0.00 0.00 53 1017.3
20260831222437 94 27 1.7 6.1 0.00 0.00 0.00 54 1017.4
20260831222323 94 5 1.7 6.1 0.00 0.00 0.00 52 1017.3
20260831222234 94 350 0.9 6.1 0.00 0.00 0.00 53 1017.4
20260831222121 94 87 1.7 7.0 0.00 0.00 0.00 52 1017.4
20260831222029 94 82 1.7 7.0 0.00 0.00 0.00 53 1017.4
20260831221937 94 117 2.6 7.0 0.00 0.00 0.00 55 1017.4
20260831221907 94 110 2.6 7.0 0.00 0.00 0.00 53 1017.4
20260831221625 94 95 3.5 7.0 0.00 0.00 0.00 54 1017.4
20260831221531 94 131 4.3 7.0 0.00 0.00 0.00 55 1017.4
20260831221437 94 207 4.3 7.0 0.00 0.00 0.00 54 1017.4
20260831221323 94 204 4.3 7.0 0.00 0.00 0.00 54 1017.5
20260831221232 94 197 2.6 6.1 0.00 0.00 0.00 54 1017.4
20260831221124 93 183 1.7 6.1 0.00 0.00 0.00 55 1017.5
20260831221031 93 184 1.7 6.1 0.00 0.00 0.00 55 1017.4
20260831220937 93 214 1.7 6.1 0.00 0.00 0.00 55 1017.5
20260831220901 94 167 2.6 6.1 0.00 0.00 0.00 55 1017.5
20260831220727 94 134 3.5 6.1 0.00 0.00 0.00 54 1017.4
20260831220634 94 70 4.3 6.1 0.00 0.00 0.00 53 1017.4
20260831220525 94 150 3.5 6.1 0.00 0.00 0.00 54 1017.4
20260831220432 94 113 2.6 6.1 0.00 0.00 0.00 53 1017.4
20260831220403 94 115 2.6 6.1 0.00 0.00 0.00 53 1017.4
20260831220137 94 106 2.6 6.1 0.00 0.00 0.00 53 1017.4
20260831220026 94 137 2.6 6.1 0.00 0.00 0.00 52 1017.5
20260831215937 94 74 1.7 6.1 0.00 0.00 0.00 51 1017.5
20260831215824 94 58 2.6 6.1 0.00 0.00 0.00 51 1017.6
20260831215751 94 46 2.6 6.1 0.00 0.00 0.00 51 1017.5
20260831215638 94 126 3.5 6.1 0.00 0.00 0.00 51 1017.5
20260831215526 94 119 2.6 5.2 0.00 0.00 0.00 52 1017.6
20260831215433 94 129 2.6 5.2 0.00 0.00 0.00 51 1017.6
20260831215324 94 63 2.6 5.2 0.00 0.00 0.00 52 1017.6
20260831215231 94 107 1.7 5.2 0.00 0.00 0.00 51 1017.5
20260831215139 94 113 0.9 5.2 0.00 0.00 0.00 51 1017.6
20260831215025 94 50 1.7 5.2 0.00 0.00 0.00 51 1017.5
20260831214932 94 50 2.6 6.1 0.00 0.00 0.00 52 1017.6
20260831214907 94 28 2.6 6.1 0.00 0.00 0.00 52 1017.6
20260831214638 94 65 1.7 6.1 0.00 0.00 0.00 54 1017.6
20260831214525 94 80 1.7 6.1 0.00 0.00 0.00 53 1017.6
20260831214432 94 117 1.7 6.1 0.00 0.00 0.00 52 1017.6
20260831214324 94 140 2.6 6.1 0.00 0.00 0.00 53 1017.6
20260831214252 94 105 3.5 6.1 0.00 0.00 0.00 53 1017.5
20260831214139 94 71 3.5 5.2 0.00 0.00 0.00 52 1017.5
20260831214046 94 103 2.6 5.2 0.00 0.00 0.00 51 1017.6
20260831213932 94 59 3.5 5.2 0.00 0.00 0.00 51 1017.5
20260831213840 94 31 3.5 5.2 0.00 0.00 0.00 51 1017.6
20260831213727 94 57 3.5 5.2 0.00 0.00 0.00 51 1017.6
20260831213658 94 137 3.5 5.2 0.00 0.00 0.00 53 1017.6
20260831213544 95 118 2.6 6.1 0.00 0.00 0.00 51 1017.6
20260831213451 95 88 2.6 6.1 0.00 0.00 0.00 52 1017.6
20260831213421 95 130 2.6 6.1 0.00 0.00 0.00 54 1017.6
20260831213133 95 116 1.7 6.1 0.00 0.00 0.00 51 1017.5
20260831213024 95 235 0.9 5.2 0.00 0.00 0.00 51 1017.5
20260831212932 95 235 1.7 5.2 0.00 0.00 0.00 51 1017.6
20260831212819 95 5 1.7 5.2 0.00 0.00 0.00 52 1017.5
20260831212727 95 53 2.6 5.2 0.00 0.00 0.00 52 1017.6
20260831212635 95 89 1.7 5.2 0.00 0.00 0.00 53 1017.5
20260831212542 95 67 1.7 4.3 0.00 0.00 0.00 51 1017.6
20260831212433 94 88 1.7 4.3 0.00 0.00 0.00 52 1017.6
20260831212320 94 350 0.9 4.3 0.00 0.00 0.00 52 1017.6
20260831212227 94 309 0.9 4.3 0.00 0.00 0.00 52 1017.7
20260831212135 94 72 1.7 4.3 0.00 0.00 0.00 52 1017.6
20260831212022 94 144 1.7 4.3 0.00 0.00 0.00 51 1017.7
20260831211929 94 193 1.7 6.1 0.00 0.00 0.00 51 1017.7
20260831211904 94 78 1.7 6.1 0.00 0.00 0.00 51 1017.7
20260831211637 94 157 2.6 6.1 0.00 0.00 0.00 52 1017.7
20260831211525 94 156 2.6 6.1 0.00 0.00 0.00 53 1017.8
20260831211432 94 130 1.7 6.1 0.00 0.00 0.00 53 1017.7
20260831211324 94 33 2.6 6.1 0.00 0.00 0.00 53 1017.7
20260831211230 94 61 2.6 6.1 0.00 0.00 0.00 53 1017.8
20260831211158 94 63 1.7 6.1 0.00 0.00 0.00 55 1017.8
20260831211045 94 98 0.9 6.1 0.00 0.00 0.00 53 1017.9
20260831210933 94 5 1.7 6.1 0.00 0.00 0.00 54 1017.9
20260831210839 94 355 0.9 6.1 0.00 0.00 0.00 54 1017.9
20260831210730 93 285 0.9 6.1 0.00 0.00 0.00 55 1017.9
20260831210637 93 196 2.6 6.1 0.00 0.00 0.00 53 1017.8
20260831210525 93 198 2.6 5.2 0.00 0.00 0.00 53 1017.9
20260831210432 93 211 1.7 6.1 0.00 0.00 0.00 53 1018.0
20260831210403 93 267 0.9 7.0 0.00 0.00 0.00 54 1018.0
20260831210121 93 165 1.7 7.0 0.00 0.00 0.00 55 1018.0
20260831210029 93 121 1.7 7.0 0.00 0.00 0.00 56 1018.0
20260831205936 93 135 2.6 7.0 0.00 0.00 0.00 55 1018.0
20260831205843 93 80 2.6 7.0 0.00 0.00 0.00 56 1018.0
20260831205730 93 134 2.6 7.0 0.00 0.00 0.00 56 1018.0
20260831205622 93 128 2.6 7.0 0.00 0.00 0.00 55 1018.0
20260831205528 93 66 2.6 7.0 0.00 0.00 0.00 57 1018.0
20260831205436 93 118 2.6 5.2 0.00 0.00 0.00 57 1018.0
20260831205322 93 32 1.7 5.2 0.00 0.00 0.00 59 1018.0
20260831205230 93 5 0.9 5.2 0.00 0.00 0.00 57 1018.0
20260831205137 92 34 0.9 5.2 0.00 0.00 0.00 58 1018.1
20260831205030 92 34 1.7 5.2 0.00 0.00 0.00 58 1018.0
20260831204937 92 34 1.7 5.2 0.00 0.00 0.00 58 1018.1
20260831204907 92 34 0.9 5.2 0.00 0.00 0.00 58 1018.1
20260831204620 92 44 0.9 5.2 0.00 0.00 0.00 56 1018.2
20260831204532 92 44 0.9 5.2 0.00 0.00 0.00 58 1018.2
20260831204459 92 36 0.9 5.2 0.00 0.00 0.00 58 1018.2
20260831204325 92 42 1.7 5.2 0.00 0.00 0.00 57 1018.1
20260831204234 92 83 1.7 5.2 0.00 0.00 0.00 58 1018.3
20260831204120 92 75 2.6 5.2 0.00 0.00 0.00 57 1018.2
20260831204027 92 109 2.6 5.2 0.00 0.00 0.00 58 1018.2
20260831203935 92 99 2.6 6.1 0.00 0.00 0.00 57 1018.2
20260831203827 92 103 1.7 6.1 0.00 0.00 0.00 57 1018.3
20260831203734 92 117 1.7 6.1 0.00 0.00 0.00 56 1018.2
20260831203621 92 94 0.9 6.1 0.00 0.00 0.00 56 1018.3
20260831203529 92 122 1.7 6.1 0.00 0.00 0.00 56 1018.3
20260831203436 92 80 1.7 6.1 0.00 0.00 0.00 56 1018.3
20260831203411 93 71 1.7 6.1 0.00 0.00 0.00 55 1018.3
20260831203145 93 90 2.6 6.1 0.00 0.00 0.00 55 1018.3
20260831203031 93 166 1.7 6.1 0.00 0.00 0.00 57 1018.3
20260831202938 93 115 1.7 6.1 0.00 0.00 0.00 55 1018.3
20260831202826 93 108 3.5 6.1 0.00 0.00 0.00 56 1018.3
20260831202738 93 89 3.5 6.1 0.00 0.00 0.00 56 1018.3
20260831202626 94 121 1.7 5.2 0.00 0.00 0.00 56 1018.3
20260831202534 94 111 1.7 5.2 0.00 0.00 0.00 55 1018.4
20260831202501 94 52 2.6 5.2 0.00 0.00 0.00 55 1018.3
20260831202325 94 42 3.5 5.2 0.00 0.00 0.00 55 1018.3
20260831202232 94 33 3.5 5.2 0.00 0.00 0.00 55 1018.3
20260831202123 94 34 2.6 5.2 0.00 0.00 0.00 56 1018.4
20260831202050 94 35 1.7 5.2 0.00 0.00 0.00 56 1018.3
20260831201937 94 46 1.7 5.2 0.00 0.00 0.00 56 1018.3
20260831201908 93 77 2.6 5.2 0.00 0.00 0.00 57 1018.3
20260831201627 93 45 3.5 5.2 0.00 0.00 0.00 58 1018.4
20260831201534 93 38 3.5 6.1 0.00 0.00 0.00 58 1018.4
20260831201421 93 22 3.5 5.2 0.00 0.00 0.00 57 1018.4
20260831201348 93 31 2.6 4.3 0.00 0.00 0.00 59 1018.4
20260831201234 93 5 2.6 4.3 0.00 0.00 0.00 57 1018.4
20260831201122 93 35 1.7 4.3 0.00 0.00 0.00 56 1018.4
20260831201035 93 34 1.7 4.3 0.00 0.00 0.00 55 1018.5
20260831200921 93 36 2.6 4.3 0.00 0.00 0.00 56 1018.4
20260831200828 93 34 2.6 4.3 0.00 0.00 0.00 56 1018.5
20260831200735 93 57 2.6 4.3 0.00 0.00 0.00 56 1018.5
20260831200624 93 28 2.6 4.3 0.00 0.00 0.00 58 1018.5
20260831200531 93 67 1.7 4.3 0.00 0.00 0.00 56 1018.5
20260831200442 93 70 1.7 4.3 0.00 0.00 0.00 57 1018.6
20260831200411 93 76 0.9 4.3 0.00 0.00 0.00 58 1018.6
20260831200124 92 355 1.7 4.3 0.00 0.00 0.00 60 1018.6
20260831200031 92 342 2.6 4.3 0.00 0.00 0.00 60 1018.6
20260831195942 92 9 2.6 4.3 0.00 0.00 0.00 60 1018.6
20260831195847 92 344 1.7 3.5 0.00 0.00 0.00 58 1018.6
20260831195733 92 355 1.7 3.5 0.00 0.00 0.00 58 1018.7
20260831195622 92 23 2.6 3.5 0.00 0.00 0.00 58 1018.6
20260831195550 92 38 1.7 3.5 0.00 0.00 0.00 58 1018.6
20260831195436 92 5 1.7 4.3 0.00 0.00 0.00 58 1018.7
20260831195323 92 322 1.7 4.3 0.00 0.00 0.00 58 1018.7
20260831195235 92 313 0.9 4.3 0.00 0.00 0.00 58 1018.7
20260831195123 92 331 1.7 4.3 0.00 0.00 0.00 58 1018.6
20260831195030 92 314 1.7 4.3 0.00 0.00 0.00 58 1018.7
20260831194958 92 296 1.7 4.3 0.00 0.00 0.00 58 1018.8
20260831194908 92 294 1.7 4.3 0.00 0.00 0.00 58 1018.8
20260831194646 92 42 3.5 4.3 0.00 0.00 0.00 58 1018.7
20260831194532 92 41 2.6 4.3 0.00 0.00 0.00 59 1018.7
20260831194420 92 360 1.7 4.3 0.00 0.00 0.00 58 1018.7
20260831194328 92 5 1.7 5.2 0.00 0.00 0.00 59 1018.7
20260831194236 92 5 2.6 5.2 0.00 0.00 0.00 58 1018.7
20260831194128 92 355 2.6 5.2 0.00 0.00 0.00 58 1018.6
20260831194035 92 43 2.6 5.2 0.00 0.00 0.00 60 1018.7
20260831193923 92 9 2.6 5.2 0.00 0.00 0.00 61 1018.8
20260831193831 92 15 2.6 5.2 0.00 0.00 0.00 61 1018.7
20260831193737 92 22 2.6 5.2 0.00 0.00 0.00 60 1018.8
20260831193624 92 347 3.5 5.2 0.00 0.00 0.00 59 1018.7
20260831193556 92 327 3.5 5.2 0.00 0.00 0.00 59 1018.8
20260831193504 92 326 3.5 5.2 0.00 0.00 0.00 58 1018.8
20260831193435 92 326 4.3 5.2 0.00 0.00 0.00 58 1018.7
20260831193127 92 314 3.5 4.3 0.00 0.00 0.00 58 1018.9
20260831193034 92 303 2.6 4.3 0.00 0.00 0.00 59 1018.9
20260831192926 92 327 2.6 4.3 0.00 0.00 0.00 58 1018.8
20260831192833 92 360 1.7 4.3 0.00 0.00 0.00 57 1018.8
20260831192721 92 344 1.7 4.3 0.00 0.00 0.00 58 1018.8
20260831192629 92 301 1.7 4.3 0.00 0.00 0.00 57 1018.9
20260831192536 92 341 1.7 4.3 0.00 0.00 0.00 58 1018.9
20260831192428 92 320 2.6 4.3 0.00 0.00 0.00 58 1018.8
20260831192356 92 314 2.6 4.3 0.00 0.00 0.00 57 1018.8
20260831192222 92 315 2.6 4.3 0.00 0.00 0.00 57 1019.0
20260831192129 92 5 1.7 4.3 0.00 0.00 0.00 58 1019.0
20260831192037 92 336 1.7 4.3 0.00 0.00 0.00 57 1018.9
20260831191944 93 313 1.7 4.3 0.00 0.00 0.00 57 1018.9
20260831191918 93 318 2.6 4.3 0.00 0.00 0.00 58 1018.9
20260831191632 93 305 2.6 4.3 0.00 0.00 0.00 57 1019.1
20260831191540 93 308 3.5 4.3 0.00 0.00 0.00 58 1019.0
20260831191447 93 309 3.5 5.2 0.00 0.00 0.00 57 1019.0
20260831191334 93 327 3.5 5.2 0.00 0.00 0.00 57 1019.0
20260831191220 93 323 3.5 5.2 0.00 0.00 0.00 59 1019.0
20260831191131 93 322 2.6 5.2 0.00 0.00 0.00 59 1019.1
20260831191039 93 355 2.6 5.2 0.00 0.00 0.00 60 1019.1
20260831190926 93 5 2.6 5.2 0.00 0.00 0.00 61 1019.1
20260831190855 92 360 2.6 5.2 0.00 0.00 0.00 61 1019.1
20260831190741 92 355 3.5 5.2 0.00 0.00 0.00 63 1019.0
20260831190647 92 16 3.5 5.2 0.00 0.00 0.00 62 1019.1
20260831190532 92 18 2.6 6.1 0.00 0.00 0.00 62 1019.1
20260831190443 92 22 2.6 4.3 0.00 0.00 0.00 62 1019.1
20260831190413 92 355 2.6 3.5 0.00 0.00 0.00 64 1019.1
20260831190147 91 325 1.7 3.5 0.00 0.00 0.00 60 1019.1
20260831190034 91 5 1.7 3.5 0.00 0.00 0.00 61 1019.1
20260831185942 91 5 2.6 3.5 0.00 0.00 0.00 60 1019.2
20260831185833 91 322 2.6 3.5 0.00 0.00 0.00 62 1019.2
20260831185800 91 323 2.6 3.5 0.00 0.00 0.00 60 1019.2
20260831185626 91 5 2.6 3.5 0.00 0.00 0.00 60 1019.1
20260831185532 91 13 2.6 3.5 0.00 0.00 0.00 60 1019.2
20260831185420 91 324 2.6 3.5 0.00 0.00 0.00 59 1019.2
20260831185328 91 5 2.6 3.5 0.00 0.00 0.00 59 1019.2
20260831185255 91 23 1.7 3.5 0.00 0.00 0.00 61 1019.2
20260831185146 91 39 0.9 4.3 0.00 0.00 0.00 59 1019.2
20260831185032 91 55 0.9 4.3 0.00 0.00 0.00 59 1019.3
20260831184940 91 55 1.7 4.3 0.00 0.00 0.00 59 1019.2
20260831184912 91 28 0.9 4.3 0.00 0.00 0.00 60 1019.2
20260831184624 91 53 1.7 4.3 0.00 0.00 0.00 60 1019.3
20260831184536 91 53 2.6 4.3 0.00 0.00 0.00 60 1019.3
20260831184444 91 46 3.5 4.3 0.00 0.00 0.00 60 1019.2
20260831184330 91 39 2.6 4.3 0.00 0.00 0.00 61 1019.2
20260831184238 91 16 2.6 3.5 0.00 0.00 0.00 62 1019.4
20260831184126 91 355 1.7 3.5 0.00 0.00 0.00 62 1019.3
20260831184033 91 335 1.7 3.5 0.00 0.00 0.00 63 1019.4
20260831183945 91 319 1.7 5.2 0.00 0.00 0.00 62 1019.4
20260831183831 91 321 1.7 5.2 0.00 0.00 0.00 61 1019.4
20260831183738 91 321 2.6 5.2 0.00 0.00 0.00 61 1019.4
20260831183627 90 317 1.7 5.2 0.00 0.00 0.00 62 1019.4
20260831183534 90 5 1.7 5.2 0.00 0.00 0.00 62 1019.5
20260831183500 90 44 1.7 5.2 0.00 0.00 0.00 62 1019.5
20260831183412 90 44 2.6 5.2 0.00 0.00 0.00 63 1019.4
20260831183125 90 19 3.5 5.2 0.00 0.00 0.00 63 1019.5
20260831183053 90 30 2.6 5.2 0.00 0.00 0.00 63 1019.5
20260831182940 90 5 2.6 5.2 0.00 0.00 0.00 63 1019.5
20260831182827 90 350 2.6 5.2 0.00 0.00 0.00 64 1019.6
20260831182738 90 355 3.5 5.2 0.00 0.00 0.00 63 1019.6
20260831182626 90 22 2.6 4.3 0.00 0.00 0.00 62 1019.7
20260831182554 90 360 2.6 4.3 0.00 0.00 0.00 62 1019.6
20260831182421 90 5 1.7 4.3 0.00 0.00 0.00 62 1019.6
20260831182330 90 13 1.7 4.3 0.00 0.00 0.00 62 1019.7
20260831182257 90 9 1.7 4.3 0.00 0.00 0.00 62 1019.7
20260831182128 90 360 2.6 4.3 0.00 0.00 0.00 61 1019.7
20260831182036 90 39 2.6 4.3 0.00 0.00 0.00 61 1019.7
20260831182004 90 53 2.6 4.3 0.00 0.00 0.00 62 1019.7
20260831181934 90 36 2.6 4.3 0.00 0.00 0.00 63 1019.7
20260831181646 90 351 1.7 4.3 0.00 0.00 0.00 62 1019.7
20260831181536 90 5 1.7 4.3 0.00 0.00 0.00 61 1019.7
20260831181423 90 62 1.7 4.3 0.00 0.00 0.00 61 1019.7
20260831181331 90 43 2.6 4.3 0.00 0.00 0.00 61 1019.7
20260831181237 90 66 2.6 4.3 0.00 0.00 0.00 61 1019.7
20260831181125 90 49 2.6 4.3 0.00 0.00 0.00 63 1019.6
20260831181032 90 5 2.6 4.3 0.00 0.00 0.00 63 1019.7
20260831180923 90 311 2.6 4.3 0.00 0.00 0.00 63 1019.6
20260831180830 90 327 3.5 4.3 0.00 0.00 0.00 64 1019.7
20260831180737 90 335 3.5 4.3 0.00 0.00 0.00 63 1019.6
20260831180623 90 17 3.5 4.3 0.00 0.00 0.00 64 1019.7
20260831180532 90 360 2.6 4.3 0.00 0.00 0.00 63 1019.7
20260831180423 90 310 2.6 4.3 0.00 0.00 0.00 63 1019.6
20260831180354 90 320 1.7 4.3 0.00 0.00 0.00 62 1019.6
20260831180127 90 322 1.7 4.3 0.00 0.00 0.00 62 1019.8
20260831180054 90 283 1.7 4.3 0.00 0.00 0.00 61 1019.8
20260831175921 90 216 1.7 4.3 0.00 0.00 0.00 61 1019.8
20260831175833 90 216 1.7 4.3 0.00 0.00 0.00 61 1019.9
20260831175739 90 207 2.6 4.3 0.00 0.00 0.00 61 1019.8
20260831175626 90 182 2.6 4.3 0.00 0.00 0.00 61 1019.8
20260831175535 90 167 1.7 3.5 0.00 0.00 0.00 62 1019.9
20260831175442 90 184 0.9 2.6 0.00 0.00 0.00 61 1019.9
20260831175328 90 217 0.9 2.6 0.00 0.00 0.00 61 1020.0
20260831175219 91 208 0.9 2.6 0.00 0.00 0.00 61 1020.0
20260831175147 91 273 0.9 2.6 0.00 0.00 0.00 61 1019.9
20260831175033 91 273 1.7 2.6 0.00 0.00 0.00 61 1019.9
20260831175001 91 273 1.7 2.6 0.00 0.00 0.00 61 1019.9
20260831174931 91 273 1.7 2.6 0.00 0.00 0.00 62 1019.9
20260831174627 91 275 0.9 2.6 0.00 0.00 0.00 61 1020.0
20260831174535 91 263 0.0 2.6 0.00 0.00 0.00 62 1020.0
20260831174442 91 206 0.9 2.6 0.00 0.00 0.00 62 1019.9
20260831174348 91 206 0.9 3.5 0.00 0.00 0.00 61 1020.1
20260831174254 91 206 1.7 3.5 0.00 0.00 0.00 62 1020.1
20260831174121 91 153 0.9 3.5 0.00 0.00 0.00 61 1020.1
20260831174029 91 155 0.9 3.5 0.00 0.00 0.00 62 1020.1
20260831173921 91 271 0.9 3.5 0.00 0.00 0.00 62 1020.2
20260831173827 91 276 0.0 3.5 0.00 0.00 0.00 63 1020.1
20260831173734 91 32 0.9 3.5 0.00 0.00 0.00 64 1020.1
20260831173621 90 32 1.7 3.5 0.00 0.00 0.00 60 1020.1
20260831173549 90 5 1.7 3.5 0.00 0.00 0.00 60 1020.1
20260831173436 90 355 0.9 5.2 0.00 0.00 0.00 61 1020.2
20260831173410 90 342 0.9 5.2 0.00 0.00 0.00 61 1020.2
20260831173125 90 245 1.7 5.2 0.00 0.00 0.00 59 1020.2
20260831173052 90 273 1.7 5.2 0.00 0.00 0.00 62 1020.1
20260831172938 90 290 1.7 5.2 0.00 0.00 0.00 61 1020.2
20260831172824 90 155 1.7 5.2 0.00 0.00 0.00 60 1020.3
20260831172736 90 199 1.7 5.2 0.00 0.00 0.00 61 1020.2
20260831172624 90 173 3.5 5.2 0.00 0.00 0.00 63 1020.2
20260831172531 90 202 2.6 7.0 0.00 0.00 0.00 63 1020.3
20260831172439 90 192 2.6 7.0 0.00 0.00 0.00 61 1020.3
20260831172346 90 232 1.7 7.0 0.00 0.00 0.00 63 1020.2
20260831172252 90 180 1.7 7.0 0.00 0.00 0.00 61 1020.2
20260831172123 90 76 2.6 7.0 0.00 0.00 0.00 61 1020.3
20260831172031 90 112 2.6 10.4 0.00 0.00 0.00 61 1020.3
20260831171959 90 113 3.5 10.4 0.00 0.00 0.00 60 1020.4
20260831171908 90 129 3.5 10.4 0.00 0.00 0.00 62 1020.4
20260831171622 90 162 3.5 10.4 0.00 0.00 0.00 61 1020.3
20260831171535 90 139 2.6 10.4 0.00 0.00 0.00 60 1020.3
20260831171442 90 173 1.7 10.4 0.00 0.00 0.00 60 1020.2
20260831171329 90 185 4.3 10.4 0.00 0.00 0.00 60 1020.2
20260831171236 90 141 5.2 10.4 0.00 0.00 0.00 61 1020.4
20260831171123 90 188 3.5 11.3 0.00 0.00 0.00 62 1020.3
20260831171031 90 188 2.6 6.1 0.00 0.00 0.00 63 1020.4
20260831170923 90 232 3.5 6.1 0.00 0.00 0.00 64 1020.4
20260831170831 90 194 3.5 6.1 0.00 0.00 0.00 64 1020.4
20260831170720 90 190 3.5 6.1 0.00 0.00 0.00 62 1020.4
20260831170628 90 217 3.5 6.1 0.00 0.00 0.00 61 1020.4
20260831170536 90 259 3.5 6.1 0.00 0.00 0.00 62 1020.4
20260831170447 90 219 1.7 8.7 0.00 0.00 0.00 62 1020.4
20260831170356 90 162 1.7 8.7 0.00 0.00 0.00 62 1020.4
20260831170128 90 311 1.7 8.7 0.00 0.00 0.00 62 1020.5
20260831170036 90 315 3.5 8.7 0.00 0.00 0.00 65 1020.4
20260831165923 90 213 4.3 8.7 0.00 0.00 0.00 63 1020.5
20260831165836 90 197 2.6 8.7 0.00 0.00 0.00 65 1020.6
20260831165723 89 168 2.6 8.7 0.00 0.00 0.00 64 1020.5
20260831165630 89 177 4.3 8.7 0.00 0.00 0.00 64 1020.6
20260831165536 89 186 6.1 8.7 0.00 0.00 0.00 65 1020.5
20260831165424 89 237 7.0 8.7 0.00 0.00 0.00 65 1020.5
20260831165331 89 171 7.0 8.7 0.00 0.00 0.00 65 1020.5
20260831165223 89 171 4.3 7.8 0.00 0.00 0.00 64 1020.5
20260831165130 89 171 3.5 7.8 0.00 0.00 0.00 68 1020.5
20260831165037 89 126 2.6 7.8 0.00 0.00 0.00 66 1020.5
20260831164925 89 118 3.5 7.8 0.00 0.00 0.00 65 1020.6
20260831164859 89 132 3.5 7.8 0.00 0.00 0.00 65 1020.6
20260831164632 89 137 3.5 7.8 0.00 0.00 0.00 68 1020.6
20260831164520 88 162 1.7 5.2 0.00 0.00 0.00 65 1020.6
20260831164447 88 225 0.0 5.2 0.00 0.00 0.00 65 1020.5
20260831164335 88 247 0.9 5.2 0.00 0.00 0.00 65 1020.6
20260831164221 88 247 0.9 6.1 0.00 0.00 0.00 65 1020.5
20260831164132 88 244 0.9 6.1 0.00 0.00 0.00 64 1020.5
20260831164020 88 208 0.9 6.1 0.00 0.00 0.00 64 1020.5
20260831163928 88 236 0.9 6.1 0.00 0.00 0.00 64 1020.5
20260831163835 88 236 1.7 6.1 0.00 0.00 0.00 65 1020.5
20260831163722 88 231 3.5 6.1 0.00 0.00 0.00 65 1020.6
20260831163634 88 207 3.5 6.1 0.00 0.00 0.00 67 1020.7
20260831163520 88 178 4.3 6.1 0.00 0.00 0.00 66 1020.6
20260831163428 88 193 4.3 6.1 0.00 0.00 0.00 66 1020.6
20260831163359 88 144 3.5 6.1 0.00 0.00 0.00 68 1020.6
20260831163133 88 192 2.6 6.1 0.00 0.00 0.00 67 1020.6
20260831163025 88 195 0.9 6.1 0.00 0.00 0.00 66 1020.7
20260831162933 88 245 0.9 7.0 0.00 0.00 0.00 66 1020.6
20260831162901 88 265 0.9 7.0 0.00 0.00 0.00 65 1020.7
20260831162726 88 290 2.6 7.0 0.00 0.00 0.00 66 1020.6
20260831162634 88 245 3.5 7.0 0.00 0.00 0.00 66 1020.7
20260831162526 88 257 2.6 7.0 0.00 0.00 0.00 66 1020.7
20260831162434 88 245 3.5 8.7 0.00 0.00 0.00 66 1020.6
20260831162321 88 221 4.3 8.7 0.00 0.00 0.00 65 1020.7
20260831162229 88 175 4.3 8.7 0.00 0.00 0.00 66 1020.7
20260831162136 88 186 4.3 8.7 0.00 0.00 0.00 66 1020.7
20260831162022 88 196 4.3 8.7 0.00 0.00 0.00 65 1020.6
20260831161933 89 216 3.5 8.7 0.00 0.00 0.00 65 1020.7
20260831161903 89 195 4.3 8.7 0.00 0.00 0.00 65 1020.7
20260831161637 89 204 5.2 8.7 0.00 0.00 0.00 65 1020.6
20260831161524 89 186 3.5 8.7 0.00 0.00 0.00 65 1020.5
20260831161436 89 162 1.7 7.0 0.00 0.00 0.00 65 1020.6
20260831161322 89 334 3.5 7.0 0.00 0.00 0.00 65 1020.6
20260831161230 89 268 4.3 7.0 0.00 0.00 0.00 67 1020.7
20260831161139 89 200 4.3 7.0 0.00 0.00 0.00 68 1020.6
20260831161026 89 219 3.5 7.0 0.00 0.00 0.00 67 1020.7
20260831160934 89 275 2.6 7.0 0.00 0.00 0.00 68 1020.7
20260831160827 89 175 1.7 7.0 0.00 0.00 0.00 67 1020.7
20260831160734 89 200 3.5 7.0 0.00 0.00 0.00 67 1020.8
20260831160701 89 171 4.3 7.0 0.00 0.00 0.00 66 1020.7
20260831160527 88 196 3.5 7.0 0.00 0.00 0.00 69 1020.7
20260831160434 88 199 3.5 5.2 0.00 0.00 0.00 69 1020.7
20260831160408 88 203 3.5 5.2 0.00 0.00 0.00 68 1020.7
20260831160121 88 272 2.6 6.1 0.00 0.00 0.00 69 1020.8
20260831160029 88 290 2.6 7.8 0.00 0.00 0.00 69 1020.7
20260831155936 88 344 2.6 7.8 0.00 0.00 0.00 68 1020.8
20260831155822 88 280 2.6 7.8 0.00 0.00 0.00 68 1020.8
20260831155734 88 220 3.5 7.8 0.00 0.00 0.00 68 1020.8
20260831155621 88 277 3.5 7.8 0.00 0.00 0.00 68 1020.8
20260831155528 88 213 2.6 7.8 0.00 0.00 0.00 69 1020.8
20260831155436 88 262 2.6 7.8 0.00 0.00 0.00 68 1020.7
20260831155322 88 268 3.5 7.8 0.00 0.00 0.00 69 1020.8
20260831155230 88 234 4.3 7.8 0.00 0.00 0.00 68 1020.7